Time,TemperatureF,DewpointF,PressureIn,WindDirection,WindDirectionDegrees,WindSpeedMPH,WindSpeedGustMPH,Humidity,HourlyPrecipIn,Conditions,Clouds,dailyrainin,SoftwareType,DateUTC
2013-02-14 00:00:00,37.6,32.3,29.89,WSW,238,6.9,6.9,81,0.00,CLR,SCT,0.12,WeatherDisplay:10.37,2013-02-14 05:00:00,
2013-02-14 00:02:00,37.6,32.0,29.89,WSW,240,4.6,4.6,80,0.00,RA,SCT,0.00,WeatherDisplay:10.37,2013-02-14 05:02:00,
2013-02-14 00:05:00,37.5,32.2,29.89,WSW,256,8.1,8.1,81,0.00,RA,SCT,0.00,WeatherDisplay:10.37,2013-02-14 05:05:00,
2013-02-14 00:07:00,37.5,32.2,29.89,WSW,247,9.2,9.2,81,0.00,RA,SCT,0.00,WeatherDisplay:10.37,2013-02-14 05:07:00,
2013-02-14 00:10:00,37.5,32.2,29.89,WSW,258,6.9,6.9,81,0.00,RA,SCT,0.00,WeatherDisplay:10.37,2013-02-14 05:10:00,
2013-02-14 00:12:00,37.5,32.2,29.89,WSW,257,3.5,3.5,81,0.00,CLR,SCT,0.00,WeatherDisplay:10.37,2013-02-14 05:12:00,
2013-02-14 00:15:00,37.5,32.2,29.89,WSW,253,3.5,3.5,81,0.00,CLR,SCT,0.00,WeatherDisplay:10.37,2013-02-14 05:15:00,
2013-02-14 00:19:00,37.5,32.2,29.89,WSW,253,3.5,3.5,81,0.00,CLR,SCT,0.00,WeatherDisplay:10.37,2013-02-14 05:19:00,
2013-02-14 00:20:00,37.5,32.2,29.89,WSW,253,4.0,4.0,81,0.00,CLR,SCT,0.00,WeatherDisplay:10.37,2013-02-14 05:20:00,
2013-02-14 00:25:00,37.3,32.0,29.89,WSW,258,5.8,5.8,81,0.00,CLR,SCT,0.00,WeatherDisplay:10.37,2013-02-14 05:25:00,
2013-02-14 00:30:00,37.3,31.7,29.89,WSW,245,6.9,6.9,80,0.00,CLR,SCT,0.00,WeatherDisplay:10.37,2013-02-14 05:30:00,
2013-02-14 00:31:00,37.3,32.0,29.89,WSW,247,6.9,6.9,81,0.00,CLR,SCT,0.00,WeatherDisplay:10.37,2013-02-14 05:31:00,
2013-02-14 00:35:00,37.3,31.7,29.89,WSW,252,4.0,4.0,80,0.00,CLR,SCT,0.00,WeatherDisplay:10.37,2013-02-14 05:35:00,
2013-02-14 00:36:00,37.3,32.9,29.89,WSW,252,3.5,3.5,84,0.00,CLR,SCT,0.00,WeatherDisplay:10.37,2013-02-14 05:36:00,
2013-02-14 00:40:00,37.3,31.7,29.89,WSW,252,0.0,0.0,80,0.00,CLR,SCT,0.00,WeatherDisplay:10.37,2013-02-14 05:40:00,
2013-02-14 00:41:00,37.3,31.7,29.89,WSW,252,0.0,0.0,80,0.00,CLR,SCT,0.00,WeatherDisplay:10.37,2013-02-14 05:41:00,
2013-02-14 00:46:00,37.3,31.7,29.89,WSW,252,0.0,0.0,80,0.00,CLR,SCT,0.00,WeatherDisplay:10.37,2013-02-14 05:46:00,
2013-02-14 00:47:00,37.3,31.7,29.89,WSW,252,0.0,0.0,80,0.00,CLR,SCT,0.00,WeatherDisplay:10.37,2013-02-14 05:47:00,
2013-02-14 00:51:00,37.3,31.7,29.90,WSW,247,3.5,0.0,80,0.00,CLR,SCT,0.00,WeatherDisplay:10.37,2013-02-14 05:51:00,
2013-02-14 00:52:00,37.3,31.7,29.90,WSW,247,0.0,0.0,80,0.00,CLR,SCT,0.00,WeatherDisplay:10.37,2013-02-14 05:52:00,
2013-02-14 00:56:00,37.3,31.7,29.90,WSW,247,3.0,0.0,80,0.00,CLR,SCT,0.00,WeatherDisplay:10.37,2013-02-14 05:56:00,
2013-02-14 00:57:00,37.3,31.7,29.90,WSW,247,3.5,3.5,80,0.00,CLR,SCT,0.00,WeatherDisplay:10.37,2013-02-14 05:57:00,
2013-02-14 01:02:00,37.2,31.6,29.90,WSW,248,5.8,5.8,80,0.00,CLR,SCT,0.00,WeatherDisplay:10.37,2013-02-14 06:02:00,
2013-02-14 01:03:00,37.2,31.6,29.90,WSW,249,3.5,3.5,80,0.00,CLR,SCT,0.00,WeatherDisplay:10.37,2013-02-14 06:03:00,
2013-02-14 01:08:00,37.2,31.6,29.90,WSW,256,4.6,4.6,80,0.00,,SCT,0.00,WeatherDisplay:10.37,2013-02-14 06:08:00,
2013-02-14 01:09:00,37.2,31.6,29.90,WSW,256,4.6,4.6,80,0.00,,SCT,0.00,WeatherDisplay:10.37,2013-02-14 06:09:00,
2013-02-14 01:14:00,37.2,31.3,29.90,WSW,258,4.6,4.6,79,0.00,,SCT,0.00,WeatherDisplay:10.37,2013-02-14 06:14:00,
2013-02-14 01:15:00,37.2,31.3,29.90,WSW,251,4.0,4.0,79,0.00,,SCT,0.00,WeatherDisplay:10.37,2013-02-14 06:15:00,
2013-02-14 01:19:00,37.2,31.3,29.91,WSW,251,3.5,3.5,79,0.00,,SCT,0.00,WeatherDisplay:10.37,2013-02-14 06:19:00,
2013-02-14 01:21:00,37.2,31.3,29.91,WSW,251,3.5,3.5,79,0.00,,SCT,0.00,WeatherDisplay:10.37,2013-02-14 06:21:00,
2013-02-14 01:24:00,37.0,31.1,29.91,WSW,252,4.0,4.0,79,0.00,,SCT,0.00,WeatherDisplay:10.37,2013-02-14 06:24:00,
2013-02-14 01:27:00,37.0,31.1,29.91,WSW,252,3.5,3.5,79,0.00,,SCT,0.00,WeatherDisplay:10.37,2013-02-14 06:27:00,
2013-02-14 01:30:00,37.0,31.1,29.91,WSW,254,5.0,5.0,79,0.00,,SCT,0.00,WeatherDisplay:10.37,2013-02-14 06:30:00,
2013-02-14 01:32:00,37.0,31.1,29.91,West,263,5.8,5.8,79,0.00,,SCT,0.00,WeatherDisplay:10.37,2013-02-14 06:32:00,
2013-02-14 01:35:00,37.0,31.1,29.91,West,263,6.9,6.9,79,0.00,,SCT,0.00,WeatherDisplay:10.37,2013-02-14 06:35:00,
2013-02-14 01:38:00,37.0,31.1,29.91,West,266,4.6,4.6,79,0.00,,SCT,0.00,WeatherDisplay:10.37,2013-02-14 06:38:00,
2013-02-14 01:40:00,37.0,31.1,29.91,West,263,5.8,5.8,79,0.00,,SCT,0.00,WeatherDisplay:10.37,2013-02-14 06:40:00,
2013-02-14 01:43:00,37.0,30.8,29.91,West,267,8.1,8.1,78,0.00,,SCT,0.00,WeatherDisplay:10.37,2013-02-14 06:43:00,
2013-02-14 01:48:00,37.0,30.8,29.91,West,269,4.6,4.6,78,0.00,,SCT,0.00,WeatherDisplay:10.37,2013-02-14 06:48:00,
2013-02-14 01:49:00,36.9,30.7,29.91,West,269,4.6,4.6,78,0.00,,SCT,0.00,WeatherDisplay:10.37,2013-02-14 06:49:00,
2013-02-14 01:53:00,36.9,30.7,29.91,WSW,246,9.2,9.2,78,0.00,,SCT,0.00,WeatherDisplay:10.37,2013-02-14 06:53:00,
2013-02-14 01:54:00,36.9,30.7,29.91,West,264,8.1,8.1,78,0.00,,SCT,0.00,WeatherDisplay:10.37,2013-02-14 06:54:00,
2013-02-14 01:58:00,36.9,30.4,29.91,West,265,7.0,7.0,77,0.00,,SCT,0.00,WeatherDisplay:10.37,2013-02-14 06:58:00,
2013-02-14 02:00:00,36.9,30.7,29.91,West,265,5.8,5.8,78,0.00,,SCT,0.00,WeatherDisplay:10.37,2013-02-14 07:00:00,
2013-02-14 02:02:00,36.9,30.4,29.91,West,267,10.4,10.4,77,0.00,,SCT,0.00,WeatherDisplay:10.37,2013-02-14 07:02:00,
2013-02-14 02:04:00,36.9,30.4,29.91,West,272,5.8,5.8,77,0.00,,SCT,0.00,WeatherDisplay:10.37,2013-02-14 07:04:00,
2013-02-14 02:07:00,36.9,30.4,29.91,West,267,5.8,5.8,77,0.00,CLR,SCT,0.00,WeatherDisplay:10.37,2013-02-14 07:07:00,
2013-02-14 02:08:00,36.9,30.4,29.91,West,267,5.8,5.8,77,0.00,CLR,SCT,0.00,WeatherDisplay:10.37,2013-02-14 07:08:00,
2013-02-14 02:12:00,36.9,30.4,29.92,WSW,250,7.0,7.0,77,0.00,CLR,SCT,0.00,WeatherDisplay:10.37,2013-02-14 07:12:00,
2013-02-14 02:13:00,36.9,30.4,29.92,WSW,250,8.1,8.1,77,0.00,CLR,SCT,0.00,WeatherDisplay:10.37,2013-02-14 07:13:00,
2013-02-14 02:14:00,36.9,30.4,29.91,WSW,251,5.8,5.8,77,0.00,CLR,SCT,0.00,WeatherDisplay:10.37,2013-02-14 07:14:00,
2013-02-14 02:18:00,36.9,30.4,29.91,WSW,251,2.3,0.0,77,0.00,CLR,SCT,0.00,WeatherDisplay:10.37,2013-02-14 07:18:00,
2013-02-14 02:19:00,36.9,30.4,29.91,WSW,251,0.0,0.0,77,0.00,CLR,SCT,0.00,WeatherDisplay:10.37,2013-02-14 07:19:00,
2013-02-14 02:23:00,36.8,30.3,29.92,WSW,253,4.6,4.6,77,0.00,CLR,SCT,0.00,WeatherDisplay:10.37,2013-02-14 07:23:00,
2013-02-14 02:24:00,36.8,30.3,29.92,WSW,253,4.6,4.6,77,0.00,CLR,SCT,0.00,WeatherDisplay:10.37,2013-02-14 07:24:00,
2013-02-14 02:27:00,36.8,30.3,29.92,WSW,253,5.0,5.0,77,0.00,CLR,SCT,0.00,WeatherDisplay:10.37,2013-02-14 07:27:00,
2013-02-14 02:29:00,36.8,30.3,29.92,WSW,253,3.5,3.5,77,0.00,CLR,SCT,0.00,WeatherDisplay:10.37,2013-02-14 07:29:00,
2013-02-14 02:31:00,36.8,30.3,29.92,WSW,254,4.6,4.6,77,0.00,CLR,SCT,0.00,WeatherDisplay:10.37,2013-02-14 07:31:00,
2013-02-14 02:32:00,36.8,30.3,29.92,WSW,254,4.6,4.6,77,0.00,CLR,SCT,0.00,WeatherDisplay:10.37,2013-02-14 07:32:00,
2013-02-14 02:33:00,36.8,30.3,29.92,WSW,255,4.6,4.6,77,0.00,CLR,SCT,0.00,WeatherDisplay:10.37,2013-02-14 07:33:00,
2013-02-14 02:37:00,36.8,30.3,29.92,WSW,255,0.0,0.0,77,0.00,CLR,SCT,0.00,WeatherDisplay:10.37,2013-02-14 07:37:00,
2013-02-14 02:38:00,36.8,30.3,29.92,WSW,255,0.0,0.0,77,0.00,CLR,SCT,0.00,WeatherDisplay:10.37,2013-02-14 07:38:00,
2013-02-14 02:40:00,36.8,30.3,29.92,WSW,255,0.0,0.0,77,0.00,CLR,SCT,0.00,WeatherDisplay:10.37,2013-02-14 07:40:00,
2013-02-14 02:41:00,36.8,30.3,29.92,WSW,255,0.0,0.0,77,0.00,CLR,SCT,0.00,WeatherDisplay:10.37,2013-02-14 07:41:00,
2013-02-14 02:45:00,36.8,30.3,29.92,WSW,255,0.0,0.0,77,0.00,CLR,SCT,0.00,WeatherDisplay:10.37,2013-02-14 07:45:00,
2013-02-14 02:46:00,36.8,30.3,29.92,WSW,255,0.0,0.0,77,0.00,CLR,SCT,0.00,WeatherDisplay:10.37,2013-02-14 07:46:00,
2013-02-14 02:47:00,36.8,30.3,29.92,WSW,256,3.0,3.0,77,0.00,CLR,SCT,0.00,WeatherDisplay:10.37,2013-02-14 07:47:00,
2013-02-14 02:52:00,36.8,30.3,29.92,WSW,256,0.0,0.0,77,0.00,CLR,SCT,0.00,WeatherDisplay:10.37,2013-02-14 07:52:00,
2013-02-14 02:53:00,36.8,30.3,29.92,WSW,256,0.0,0.0,77,0.00,CLR,SCT,0.00,WeatherDisplay:10.37,2013-02-14 07:53:00,
2013-02-14 02:54:00,36.8,30.3,29.92,WSW,256,0.0,0.0,77,0.00,CLR,SCT,0.00,WeatherDisplay:10.37,2013-02-14 07:54:00,
2013-02-14 02:57:00,36.8,30.3,29.92,WSW,256,3.5,3.5,77,0.00,CLR,SCT,0.00,WeatherDisplay:10.37,2013-02-14 07:57:00,
2013-02-14 03:02:00,36.8,30.3,29.93,WSW,258,6.9,6.9,77,0.00,CLR,SCT,0.00,WeatherDisplay:10.37,2013-02-14 08:02:00,
2013-02-14 03:05:00,36.6,30.1,29.93,WSW,258,3.5,3.5,77,0.00,,SCT,0.00,WeatherDisplay:10.37,2013-02-14 08:05:00,
2013-02-14 03:06:00,36.6,30.1,29.93,WSW,258,2.3,2.3,77,0.00,,SCT,0.00,WeatherDisplay:10.37,2013-02-14 08:06:00,
2013-02-14 03:07:00,36.6,30.1,29.93,WSW,258,0.0,0.0,77,0.00,,SCT,0.00,WeatherDisplay:10.37,2013-02-14 08:07:00,
2013-02-14 03:08:00,36.6,30.1,29.93,WSW,258,0.0,0.0,77,0.00,,SCT,0.00,WeatherDisplay:10.37,2013-02-14 08:08:00,
2013-02-14 03:11:00,36.6,30.1,29.93,WSW,258,0.0,0.0,77,0.00,,SCT,0.00,WeatherDisplay:10.37,2013-02-14 08:11:00,
2013-02-14 03:12:00,36.6,30.1,29.93,WSW,258,3.5,3.5,77,0.00,,SCT,0.00,WeatherDisplay:10.37,2013-02-14 08:12:00,
2013-02-14 03:16:00,36.6,30.1,29.93,WSW,258,0.0,0.0,77,0.00,,SCT,0.00,WeatherDisplay:10.37,2013-02-14 08:16:00,
2013-02-14 03:17:00,36.6,30.1,29.94,WSW,258,0.0,0.0,77,0.00,,SCT,0.00,WeatherDisplay:10.37,2013-02-14 08:17:00,
2013-02-14 03:19:00,36.6,30.1,29.94,WSW,258,0.0,0.0,77,0.00,,SCT,0.00,WeatherDisplay:10.37,2013-02-14 08:19:00,
2013-02-14 03:22:00,36.6,30.1,29.94,West,259,3.5,3.5,77,0.00,,SCT,0.00,WeatherDisplay:10.37,2013-02-14 08:22:00,
2013-02-14 03:24:00,36.6,30.1,29.93,West,259,0.0,0.0,77,0.00,,SCT,0.00,WeatherDisplay:10.37,2013-02-14 08:24:00,
2013-02-14 03:25:00,36.6,30.1,29.93,West,259,0.0,0.0,77,0.00,,SCT,0.00,WeatherDisplay:10.37,2013-02-14 08:25:00,
2013-02-14 03:30:00,36.5,30.0,29.93,West,259,0.0,0.0,77,0.00,,SCT,0.00,WeatherDisplay:10.37,2013-02-14 08:30:00,
2013-02-14 03:32:00,36.5,30.0,29.93,West,259,0.0,0.0,77,0.00,,SCT,0.00,WeatherDisplay:10.37,2013-02-14 08:32:00,
2013-02-14 03:34:00,36.5,30.0,29.93,West,259,0.0,0.0,77,0.00,,SCT,0.00,WeatherDisplay:10.37,2013-02-14 08:34:00,
2013-02-14 03:35:00,36.5,30.0,29.93,West,259,3.5,3.5,77,0.00,,SCT,0.00,WeatherDisplay:10.37,2013-02-14 08:35:00,
2013-02-14 03:40:00,36.5,30.0,29.93,West,259,0.0,0.0,77,0.00,,SCT,0.00,WeatherDisplay:10.37,2013-02-14 08:40:00,
2013-02-14 03:42:00,36.3,29.8,29.94,West,259,0.0,0.0,77,0.00,,SCT,0.00,WeatherDisplay:10.37,2013-02-14 08:42:00,
2013-02-14 03:43:00,36.3,29.8,29.94,West,259,0.0,0.0,77,0.00,,SCT,0.00,WeatherDisplay:10.37,2013-02-14 08:43:00,
2013-02-14 03:46:00,36.3,29.8,29.93,West,259,0.0,0.0,77,0.00,,SCT,0.00,WeatherDisplay:10.37,2013-02-14 08:46:00,
2013-02-14 03:48:00,36.3,29.8,29.93,West,259,0.0,0.0,77,0.00,,SCT,0.00,WeatherDisplay:10.37,2013-02-14 08:48:00,
2013-02-14 03:51:00,36.3,29.8,29.93,West,259,0.0,0.0,77,0.00,,SCT,0.00,WeatherDisplay:10.37,2013-02-14 08:51:00,
2013-02-14 03:52:00,36.2,29.7,29.93,West,259,0.0,0.0,77,0.00,,SCT,0.00,WeatherDisplay:10.37,2013-02-14 08:52:00,
2013-02-14 03:54:00,36.2,29.7,29.93,West,259,0.0,0.0,77,0.00,,SCT,0.00,WeatherDisplay:10.37,2013-02-14 08:54:00,
2013-02-14 03:56:00,36.2,29.7,29.93,West,266,2.3,2.3,77,0.00,,SCT,0.00,WeatherDisplay:10.37,2013-02-14 08:56:00,
2013-02-14 03:58:00,36.0,29.5,29.93,West,271,4.6,4.6,77,0.00,,SCT,0.00,WeatherDisplay:10.37,2013-02-14 08:58:00,
2013-02-14 03:59:00,36.0,29.2,29.93,West,271,0.0,0.0,76,0.00,,SCT,0.00,WeatherDisplay:10.37,2013-02-14 08:59:00,
2013-02-14 04:00:00,36.0,29.5,29.93,West,271,0.0,0.0,77,0.00,,SCT,0.00,WeatherDisplay:10.37,2013-02-14 09:00:00,
2013-02-14 04:01:00,36.0,29.5,29.93,West,271,0.0,0.0,77,0.00,,SCT,0.00,WeatherDisplay:10.37,2013-02-14 09:01:00,
2013-02-14 04:04:00,36.0,29.5,29.93,West,271,0.0,0.0,77,0.00,,SCT,0.00,WeatherDisplay:10.37,2013-02-14 09:04:00,
2013-02-14 04:06:00,35.9,29.4,29.93,West,271,0.0,0.0,77,0.00,,SCT,0.00,WeatherDisplay:10.37,2013-02-14 09:06:00,
2013-02-14 04:07:00,35.9,29.4,29.93,West,271,0.0,0.0,77,0.00,,SCT,0.00,WeatherDisplay:10.37,2013-02-14 09:07:00,
2013-02-14 04:10:00,35.9,29.4,29.93,West,271,0.0,0.0,77,0.00,,SCT,0.00,WeatherDisplay:10.37,2013-02-14 09:10:00,
2013-02-14 04:12:00,35.9,29.4,29.93,West,271,0.0,0.0,77,0.00,,SCT,0.00,WeatherDisplay:10.37,2013-02-14 09:12:00,
2013-02-14 04:15:00,35.9,29.4,29.93,West,271,0.0,0.0,77,0.00,,SCT,0.00,WeatherDisplay:10.37,2013-02-14 09:15:00,
2013-02-14 04:16:00,35.9,29.4,29.94,West,271,0.0,0.0,77,0.00,,SCT,0.00,WeatherDisplay:10.37,2013-02-14 09:16:00,
2013-02-14 04:17:00,35.9,29.4,29.94,West,271,0.0,0.0,77,0.00,,SCT,0.00,WeatherDisplay:10.37,2013-02-14 09:17:00,
2013-02-14 04:19:00,35.8,29.3,29.94,West,271,0.0,0.0,77,0.00,,SCT,0.00,WeatherDisplay:10.37,2013-02-14 09:19:00,
2013-02-14 04:24:00,35.8,29.3,29.94,West,271,0.0,0.0,77,0.00,,SCT,0.00,WeatherDisplay:10.37,2013-02-14 09:24:00,
2013-02-14 04:28:00,35.8,29.3,29.94,West,272,0.0,0.5,77,0.00,,SCT,0.00,WeatherDisplay:10.37,2013-02-14 09:28:00,
2013-02-14 04:30:00,35.6,28.8,29.94,West,275,1.1,0.0,76,0.00,,SCT,0.00,WeatherDisplay:10.37,2013-02-14 09:30:00,
2013-02-14 04:34:00,35.6,28.8,29.94,West,276,5.0,5.0,76,0.00,,SCT,0.00,WeatherDisplay:10.37,2013-02-14 09:34:00,
2013-02-14 04:35:00,35.6,28.8,29.94,West,277,5.8,5.8,76,0.00,,SCT,0.00,WeatherDisplay:10.37,2013-02-14 09:35:00,
2013-02-14 04:40:00,35.6,28.8,29.94,West,277,0.0,0.0,76,0.00,,SCT,0.00,WeatherDisplay:10.37,2013-02-14 09:40:00,
2013-02-14 04:45:00,35.6,28.8,29.94,West,277,0.0,0.0,76,0.00,,SCT,0.00,WeatherDisplay:10.37,2013-02-14 09:45:00,
2013-02-14 04:50:00,35.6,28.8,29.94,West,276,4.0,4.0,76,0.00,,SCT,0.00,WeatherDisplay:10.37,2013-02-14 09:50:00,
2013-02-14 04:56:00,35.6,28.8,29.94,West,276,0.0,0.0,76,0.00,,SCT,0.00,WeatherDisplay:10.37,2013-02-14 09:56:00,
2013-02-14 05:01:00,35.6,28.8,29.94,West,276,0.0,0.0,76,0.00,,SCT,0.00,WeatherDisplay:10.37,2013-02-14 10:01:00,
2013-02-14 05:06:00,35.6,28.8,29.94,West,276,0.0,0.0,76,0.00,,SCT,0.00,WeatherDisplay:10.37,2013-02-14 10:06:00,
2013-02-14 05:11:00,35.5,28.7,29.94,West,276,0.0,0.0,76,0.00,,SCT,0.00,WeatherDisplay:10.37,2013-02-14 10:11:00,
2013-02-14 05:17:00,35.5,28.7,29.95,West,276,0.0,0.0,76,0.00,,SCT,0.00,WeatherDisplay:10.37,2013-02-14 10:17:00,
2013-02-14 05:23:00,35.5,28.7,29.95,West,277,0.0,0.0,76,0.00,,SCT,0.00,WeatherDisplay:10.37,2013-02-14 10:23:00,
2013-02-14 05:25:00,35.5,28.7,29.95,West,276,0.0,0.0,76,0.00,,SCT,0.00,WeatherDisplay:10.37,2013-02-14 10:25:00,
2013-02-14 05:27:00,35.5,28.7,29.95,West,276,0.0,0.0,76,0.00,,SCT,0.00,WeatherDisplay:10.37,2013-02-14 10:27:00,
2013-02-14 05:32:00,35.5,28.7,29.95,West,276,0.0,0.0,76,0.00,,SCT,0.00,WeatherDisplay:10.37,2013-02-14 10:32:00,
2013-02-14 05:33:00,35.5,28.7,29.95,West,276,0.0,0.0,76,0.00,,SCT,0.00,WeatherDisplay:10.37,2013-02-14 10:33:00,
2013-02-14 05:35:00,35.5,28.7,29.95,West,276,0.0,0.0,76,0.00,,SCT,0.00,WeatherDisplay:10.37,2013-02-14 10:35:00,
2013-02-14 05:38:00,35.5,28.7,29.95,West,276,0.0,0.0,76,0.00,,SCT,0.00,WeatherDisplay:10.37,2013-02-14 10:38:00,
2013-02-14 05:39:00,35.5,28.7,29.95,West,276,0.0,0.0,76,0.00,,SCT,0.00,WeatherDisplay:10.37,2013-02-14 10:39:00,
2013-02-14 05:40:00,35.5,28.7,29.95,West,276,0.0,0.0,76,0.00,,SCT,0.00,WeatherDisplay:10.37,2013-02-14 10:40:00,
2013-02-14 05:44:00,35.5,28.7,29.95,West,276,0.0,0.0,76,0.00,,SCT,0.00,WeatherDisplay:10.37,2013-02-14 10:44:00,
2013-02-14 05:45:00,35.5,28.7,29.95,West,276,0.0,0.0,76,0.00,,SCT,0.00,WeatherDisplay:10.37,2013-02-14 10:45:00,
2013-02-14 05:48:00,35.3,28.5,29.95,West,276,0.0,0.0,76,0.00,,SCT,0.00,WeatherDisplay:10.37,2013-02-14 10:48:00,
2013-02-14 05:50:00,35.3,28.5,29.95,West,276,0.0,0.0,76,0.00,,SCT,0.00,WeatherDisplay:10.37,2013-02-14 10:50:00,
2013-02-14 05:51:00,35.3,28.5,29.95,West,276,0.0,0.0,76,0.00,,SCT,0.00,WeatherDisplay:10.37,2013-02-14 10:51:00,
2013-02-14 05:55:00,35.3,28.5,29.95,West,276,0.0,0.0,76,0.00,,SCT,0.00,WeatherDisplay:10.37,2013-02-14 10:55:00,
2013-02-14 05:56:00,35.3,28.5,29.95,West,276,0.0,0.0,76,0.00,,SCT,0.00,WeatherDisplay:10.37,2013-02-14 10:56:00,
2013-02-14 06:00:00,35.3,28.5,29.95,West,276,0.0,0.0,76,0.00,,SCT,0.00,WeatherDisplay:10.37,2013-02-14 11:00:00,
2013-02-14 06:01:00,35.3,28.5,29.95,West,276,0.0,0.0,76,0.00,,SCT,0.00,WeatherDisplay:10.37,2013-02-14 11:01:00,
2013-02-14 06:05:00,35.3,28.5,29.95,West,276,0.0,0.0,76,0.00,,SCT,0.00,WeatherDisplay:10.37,2013-02-14 11:05:00,
2013-02-14 06:06:00,35.3,28.5,29.95,West,276,0.0,0.0,76,0.00,,SCT,0.00,WeatherDisplay:10.37,2013-02-14 11:06:00,
2013-02-14 06:07:00,35.3,28.5,29.95,West,276,0.0,0.0,76,0.00,,SCT,0.00,WeatherDisplay:10.37,2013-02-14 11:07:00,
2013-02-14 06:11:00,35.3,28.5,29.95,West,276,0.0,0.0,76,0.00,,SCT,0.00,WeatherDisplay:10.37,2013-02-14 11:11:00,
2013-02-14 06:12:00,35.3,28.5,29.95,West,276,0.0,0.0,76,0.00,,SCT,0.00,WeatherDisplay:10.37,2013-02-14 11:12:00,
2013-02-14 06:13:00,35.3,28.5,29.95,West,276,0.0,0.0,76,0.00,,SCT,0.00,WeatherDisplay:10.37,2013-02-14 11:13:00,
2013-02-14 06:18:00,35.2,28.4,29.95,West,276,0.0,0.0,76,0.00,,SCT,0.00,WeatherDisplay:10.37,2013-02-14 11:18:00,
2013-02-14 06:19:00,35.2,28.4,29.95,West,276,0.0,0.0,76,0.00,,SCT,0.00,WeatherDisplay:10.37,2013-02-14 11:19:00,
2013-02-14 06:24:00,35.2,28.4,29.95,West,276,0.0,0.0,76,0.00,,SCT,0.00,WeatherDisplay:10.37,2013-02-14 11:24:00,
2013-02-14 06:25:00,35.2,28.4,29.95,West,276,0.0,0.0,76,0.00,,SCT,0.00,WeatherDisplay:10.37,2013-02-14 11:25:00,
2013-02-14 06:30:00,35.2,28.4,29.95,West,276,0.0,0.0,76,0.00,,SCT,0.00,WeatherDisplay:10.37,2013-02-14 11:30:00,
2013-02-14 06:31:00,35.2,28.4,29.95,West,276,0.0,0.0,76,0.00,,SCT,0.00,WeatherDisplay:10.37,2013-02-14 11:31:00,
2013-02-14 06:32:00,35.2,28.4,29.95,West,276,0.0,0.0,76,0.00,,SCT,0.00,WeatherDisplay:10.37,2013-02-14 11:32:00,
2013-02-14 06:36:00,35.2,28.7,29.95,West,276,0.0,0.0,77,0.00,,SCT,0.00,WeatherDisplay:10.37,2013-02-14 11:36:00,
2013-02-14 06:37:00,35.2,28.7,29.95,West,276,0.0,0.0,77,0.00,,SCT,0.00,WeatherDisplay:10.37,2013-02-14 11:37:00,
2013-02-14 06:40:00,35.0,28.5,29.95,West,276,0.0,0.0,77,0.00,,SCT,0.00,WeatherDisplay:10.37,2013-02-14 11:40:00,
2013-02-14 06:43:00,35.0,28.5,29.95,West,276,0.0,0.0,77,0.00,,SCT,0.00,WeatherDisplay:10.37,2013-02-14 11:43:00,
2013-02-14 06:46:00,35.0,28.5,29.95,West,276,0.0,0.0,77,0.00,,SCT,0.00,WeatherDisplay:10.37,2013-02-14 11:46:00,
2013-02-14 06:47:00,35.0,28.5,29.95,West,276,0.0,0.0,77,0.00,,SCT,0.00,WeatherDisplay:10.37,2013-02-14 11:47:00,
2013-02-14 06:48:00,35.0,28.5,29.95,West,276,0.0,0.0,77,0.00,,SCT,0.00,WeatherDisplay:10.37,2013-02-14 11:48:00,
2013-02-14 06:52:00,35.0,28.5,29.95,West,276,0.0,0.0,77,0.00,,SCT,0.00,WeatherDisplay:10.37,2013-02-14 11:52:00,
2013-02-14 06:54:00,35.0,28.5,29.95,West,276,0.0,0.0,77,0.00,,SCT,0.00,WeatherDisplay:10.37,2013-02-14 11:54:00,
2013-02-14 06:57:00,34.9,28.4,29.95,West,276,0.0,0.0,77,0.00,,SCT,0.00,WeatherDisplay:10.37,2013-02-14 11:57:00,
2013-02-14 06:58:00,34.9,28.4,29.95,West,276,0.0,0.0,77,0.00,,SCT,0.00,WeatherDisplay:10.37,2013-02-14 11:58:00,
2013-02-14 06:59:00,34.9,28.4,29.95,West,276,0.0,0.0,77,0.00,,SCT,0.00,WeatherDisplay:10.37,2013-02-14 11:59:00,
2013-02-14 07:03:00,34.9,28.4,29.95,West,276,0.0,0.0,77,0.00,CLR,SCT,0.00,WeatherDisplay:10.37,2013-02-14 12:03:00,
2013-02-14 07:04:00,34.9,28.4,29.95,West,276,0.0,0.0,77,0.00,CLR,SCT,0.00,WeatherDisplay:10.37,2013-02-14 12:04:00,
2013-02-14 07:07:00,34.9,28.4,29.95,West,276,0.0,0.0,77,0.00,CLR,SCT,0.00,WeatherDisplay:10.37,2013-02-14 12:07:00,
2013-02-14 07:09:00,34.7,28.2,29.96,West,276,0.0,0.0,77,0.00,CLR,SCT,0.00,WeatherDisplay:10.37,2013-02-14 12:09:00,
2013-02-14 07:11:00,34.7,28.2,29.96,West,276,0.0,0.0,77,0.00,CLR,SCT,0.00,WeatherDisplay:10.37,2013-02-14 12:11:00,
2013-02-14 07:12:00,34.7,28.2,29.96,West,276,0.0,0.0,77,0.00,CLR,SCT,0.00,WeatherDisplay:10.37,2013-02-14 12:12:00,
2013-02-14 07:13:00,34.7,28.2,29.96,West,276,0.0,0.0,77,0.00,CLR,SCT,0.00,WeatherDisplay:10.37,2013-02-14 12:13:00,
2013-02-14 07:16:00,34.7,28.2,29.95,West,276,0.0,0.0,77,0.00,CLR,SCT,0.00,WeatherDisplay:10.37,2013-02-14 12:16:00,
2013-02-14 07:17:00,34.7,28.2,29.96,West,276,0.0,0.0,77,0.00,CLR,SCT,0.00,WeatherDisplay:10.37,2013-02-14 12:17:00,
2013-02-14 07:18:00,34.6,28.1,29.95,West,276,0.0,0.0,77,0.00,CLR,SCT,0.00,WeatherDisplay:10.37,2013-02-14 12:18:00,
2013-02-14 07:19:00,34.6,28.1,29.96,West,276,0.0,0.0,77,0.00,CLR,SCT,0.00,WeatherDisplay:10.37,2013-02-14 12:19:00,
2013-02-14 07:22:00,34.6,28.1,29.96,West,276,0.0,0.0,77,0.00,CLR,SCT,0.00,WeatherDisplay:10.37,2013-02-14 12:22:00,
2013-02-14 07:23:00,34.6,28.1,29.96,West,276,0.0,0.0,77,0.00,CLR,SCT,0.00,WeatherDisplay:10.37,2013-02-14 12:23:00,
2013-02-14 07:25:00,34.6,28.1,29.96,West,276,0.0,0.0,77,0.00,CLR,SCT,0.00,WeatherDisplay:10.37,2013-02-14 12:25:00,
2013-02-14 07:28:00,34.4,27.9,29.96,West,277,0.0,0.0,77,0.00,CLR,SCT,0.00,WeatherDisplay:10.37,2013-02-14 12:28:00,
2013-02-14 07:30:00,34.4,27.9,29.96,West,276,0.0,0.0,77,0.00,CLR,SCT,0.00,WeatherDisplay:10.37,2013-02-14 12:30:00,
2013-02-14 07:31:00,34.4,27.9,29.97,West,276,0.0,0.0,77,0.00,CLR,SCT,0.00,WeatherDisplay:10.37,2013-02-14 12:31:00,
2013-02-14 07:32:00,34.4,27.9,29.97,West,276,0.0,0.0,77,0.00,CLR,SCT,0.00,WeatherDisplay:10.37,2013-02-14 12:32:00,
2013-02-14 07:36:00,34.4,27.9,29.97,West,276,0.0,0.0,77,0.00,CLR,SCT,0.00,WeatherDisplay:10.37,2013-02-14 12:36:00,
2013-02-14 07:37:00,34.4,27.9,29.96,West,276,0.0,0.0,77,0.00,CLR,SCT,0.00,WeatherDisplay:10.37,2013-02-14 12:37:00,
2013-02-14 07:40:00,34.4,27.9,29.97,West,276,0.0,0.0,77,0.00,CLR,SCT,0.00,WeatherDisplay:10.37,2013-02-14 12:40:00,
2013-02-14 07:43:00,34.3,27.8,29.97,West,276,0.0,0.0,77,0.00,CLR,SCT,0.00,WeatherDisplay:10.37,2013-02-14 12:43:00,
2013-02-14 07:45:00,34.3,27.8,29.97,West,276,0.0,0.0,77,0.00,CLR,SCT,0.00,WeatherDisplay:10.37,2013-02-14 12:45:00,
2013-02-14 07:48:00,34.3,27.8,29.97,West,276,0.0,0.0,77,0.00,CLR,SCT,0.00,WeatherDisplay:10.37,2013-02-14 12:48:00,
2013-02-14 07:49:00,34.3,27.8,29.97,West,276,0.0,0.0,77,0.00,CLR,SCT,0.00,WeatherDisplay:10.37,2013-02-14 12:49:00,
2013-02-14 07:50:00,34.3,27.8,29.97,West,276,0.0,0.0,77,0.00,CLR,SCT,0.00,WeatherDisplay:10.37,2013-02-14 12:50:00,
2013-02-14 07:54:00,34.3,28.2,29.97,West,276,0.0,0.0,78,0.00,CLR,SCT,0.00,WeatherDisplay:10.37,2013-02-14 12:54:00,
2013-02-14 07:58:00,34.3,28.2,29.97,West,276,0.0,0.0,78,0.00,CLR,SCT,0.00,WeatherDisplay:10.37,2013-02-14 12:58:00,
2013-02-14 07:59:00,34.3,28.2,29.97,West,276,0.0,0.0,78,0.00,CLR,SCT,0.00,WeatherDisplay:10.37,2013-02-14 12:59:00,
2013-02-14 08:00:00,34.3,28.2,29.97,West,276,0.0,0.0,78,0.00,CLR,SCT,0.00,WeatherDisplay:10.37,2013-02-14 13:00:00,
2013-02-14 08:04:00,34.3,28.2,29.98,West,276,0.0,0.0,78,0.00,CLR,SCT,0.00,WeatherDisplay:10.37,2013-02-14 13:04:00,
2013-02-14 08:05:00,34.3,28.2,29.98,West,276,0.0,0.0,78,0.00,CLR,SCT,0.00,WeatherDisplay:10.37,2013-02-14 13:05:00,
2013-02-14 08:07:00,34.3,28.2,29.98,West,277,0.0,0.0,78,0.00,CLR,SCT,0.00,WeatherDisplay:10.37,2013-02-14 13:07:00,
2013-02-14 08:09:00,34.3,28.2,29.98,West,276,0.0,0.0,78,0.00,CLR,SCT,0.00,WeatherDisplay:10.37,2013-02-14 13:09:00,
2013-02-14 08:12:00,34.4,28.2,29.99,West,276,0.0,0.0,78,0.00,CLR,SCT,0.00,WeatherDisplay:10.37,2013-02-14 13:12:00,
2013-02-14 08:13:00,34.4,28.2,29.99,West,277,0.0,0.0,78,0.00,CLR,SCT,0.00,WeatherDisplay:10.37,2013-02-14 13:13:00,
2013-02-14 08:16:00,34.4,28.2,29.99,West,276,0.0,0.0,78,0.00,CLR,SCT,0.00,WeatherDisplay:10.37,2013-02-14 13:16:00,
2013-02-14 08:17:00,34.4,28.2,29.99,West,276,0.0,0.0,78,0.00,CLR,SCT,0.00,WeatherDisplay:10.37,2013-02-14 13:17:00,
2013-02-14 08:18:00,34.4,28.2,29.99,West,276,0.0,0.0,78,0.00,CLR,SCT,0.00,WeatherDisplay:10.37,2013-02-14 13:18:00,
2013-02-14 08:19:00,34.6,28.4,29.99,West,276,0.0,0.0,78,0.00,CLR,SCT,0.00,WeatherDisplay:10.37,2013-02-14 13:19:00,
2013-02-14 08:22:00,34.6,28.4,29.99,West,276,0.0,0.0,78,0.00,CLR,SCT,0.00,WeatherDisplay:10.37,2013-02-14 13:22:00,
2013-02-14 08:24:00,34.7,28.5,29.99,West,276,0.0,0.0,78,0.00,CLR,SCT,0.00,WeatherDisplay:10.37,2013-02-14 13:24:00,
2013-02-14 08:25:00,34.7,28.5,29.99,West,276,0.0,0.0,78,0.00,CLR,SCT,0.00,WeatherDisplay:10.37,2013-02-14 13:25:00,
2013-02-14 08:29:00,34.9,28.7,29.99,West,276,0.0,0.0,78,0.00,CLR,SCT,0.00,WeatherDisplay:10.37,2013-02-14 13:29:00,
2013-02-14 08:31:00,35.0,28.8,29.99,West,276,0.0,0.0,78,0.00,CLR,SCT,0.00,WeatherDisplay:10.37,2013-02-14 13:31:00,
2013-02-14 08:32:00,35.0,28.8,29.99,West,276,0.0,0.0,78,0.00,CLR,SCT,0.00,WeatherDisplay:10.37,2013-02-14 13:32:00,
2013-02-14 08:33:00,35.2,29.0,29.99,West,276,0.0,0.0,78,0.00,CLR,SCT,0.00,WeatherDisplay:10.37,2013-02-14 13:33:00,
2013-02-14 08:37:00,35.5,29.3,29.99,West,276,0.0,0.0,78,0.00,CLR,SCT,0.00,WeatherDisplay:10.37,2013-02-14 13:37:00,
2013-02-14 08:40:00,35.9,29.7,29.99,West,275,0.0,0.0,78,0.00,CLR,SCT,0.00,WeatherDisplay:10.37,2013-02-14 13:40:00,
2013-02-14 08:41:00,36.0,29.8,29.99,West,275,0.0,0.0,78,0.00,CLR,SCT,0.00,WeatherDisplay:10.37,2013-02-14 13:41:00,
2013-02-14 08:42:00,36.2,30.0,29.99,West,275,0.0,0.0,78,0.00,CLR,SCT,0.00,WeatherDisplay:10.37,2013-02-14 13:42:00,
2013-02-14 08:47:00,36.6,30.4,29.98,West,275,0.0,0.0,78,0.00,CLR,SCT,0.00,WeatherDisplay:10.37,2013-02-14 13:47:00,
2013-02-14 08:48:00,36.8,30.3,29.98,West,275,0.0,0.0,77,0.00,CLR,SCT,0.00,WeatherDisplay:10.37,2013-02-14 13:48:00,
2013-02-14 08:50:00,36.9,30.4,29.98,West,275,3.5,3.5,77,0.00,CLR,SCT,0.00,WeatherDisplay:10.37,2013-02-14 13:50:00,
2013-02-14 08:52:00,37.0,30.5,29.98,West,275,4.0,4.0,77,0.00,CLR,SCT,0.00,WeatherDisplay:10.37,2013-02-14 13:52:00,
2013-02-14 08:54:00,37.2,30.3,29.98,West,275,2.3,0.0,76,0.00,CLR,SCT,0.00,WeatherDisplay:10.37,2013-02-14 13:54:00,
2013-02-14 08:56:00,37.3,30.4,29.98,West,275,3.5,3.5,76,0.00,CLR,SCT,0.00,WeatherDisplay:10.37,2013-02-14 13:56:00,
2013-02-14 08:57:00,37.3,30.4,29.98,West,275,3.5,3.5,76,0.00,CLR,SCT,0.00,WeatherDisplay:10.37,2013-02-14 13:57:00,
2013-02-14 09:00:00,37.5,30.6,29.98,West,273,3.5,0.0,76,0.00,CLR,SCT,0.00,WeatherDisplay:10.37,2013-02-14 14:00:00,
2013-02-14 09:02:00,37.6,30.4,29.98,West,273,3.5,3.5,75,0.00,CLR,SCT,0.00,WeatherDisplay:10.37,2013-02-14 14:02:00,
2013-02-14 09:03:00,37.6,30.4,29.98,West,273,2.3,0.0,75,0.00,CLR,SCT,0.00,WeatherDisplay:10.37,2013-02-14 14:03:00,
2013-02-14 09:04:00,37.6,30.4,29.99,West,271,4.6,4.6,75,0.00,CLR,SCT,0.00,WeatherDisplay:10.37,2013-02-14 14:04:00,
2013-02-14 09:09:00,37.9,30.7,29.98,SW,225,5.8,5.8,75,0.00,CLR,SCT,0.00,WeatherDisplay:10.37,2013-02-14 14:09:00,
2013-02-14 09:10:00,37.9,30.4,29.99,SW,225,4.6,4.6,74,0.00,CLR,SCT,0.00,WeatherDisplay:10.37,2013-02-14 14:10:00,
2013-02-14 09:11:00,37.9,30.4,29.99,SW,225,3.5,3.5,74,0.00,CLR,SCT,0.00,WeatherDisplay:10.37,2013-02-14 14:11:00,
2013-02-14 09:15:00,38.0,30.4,29.99,SSW,209,4.6,4.6,74,0.00,CLR,SCT,0.00,WeatherDisplay:10.37,2013-02-14 14:15:00,
2013-02-14 09:17:00,38.2,30.6,30.00,SSW,210,3.5,3.5,74,0.00,CLR,SCT,0.00,WeatherDisplay:10.37,2013-02-14 14:17:00,
2013-02-14 09:18:00,38.2,30.6,30.00,SW,227,4.0,4.0,74,0.00,CLR,SCT,0.00,WeatherDisplay:10.37,2013-02-14 14:18:00,
2013-02-14 09:23:00,38.3,30.4,30.00,SW,220,4.6,4.6,73,0.00,CLR,SCT,0.00,WeatherDisplay:10.37,2013-02-14 14:23:00,
2013-02-14 09:28:00,38.3,30.1,30.00,West,259,5.8,5.8,72,0.00,CLR,SCT,0.00,WeatherDisplay:10.37,2013-02-14 14:28:00,
2013-02-14 09:29:00,38.5,30.3,30.00,West,266,12.7,12.7,72,0.00,CLR,SCT,0.00,WeatherDisplay:10.37,2013-02-14 14:29:00,
2013-02-14 09:30:00,38.5,30.3,30.00,West,267,12.7,12.7,72,0.00,CLR,SCT,0.00,WeatherDisplay:10.37,2013-02-14 14:30:00,
2013-02-14 09:34:00,38.5,29.9,30.00,SW,229,6.9,6.9,71,0.00,CLR,SCT,0.00,WeatherDisplay:10.37,2013-02-14 14:34:00,
2013-02-14 09:35:00,38.5,29.9,30.00,WSW,242,6.9,6.9,71,0.00,CLR,SCT,0.00,WeatherDisplay:10.37,2013-02-14 14:35:00,
2013-02-14 09:37:00,38.5,30.3,30.00,WSW,255,5.8,5.8,72,0.00,CLR,SCT,0.00,WeatherDisplay:10.37,2013-02-14 14:37:00,
2013-02-14 09:39:00,38.6,30.0,30.00,West,270,5.8,5.8,71,0.00,CLR,SCT,0.00,WeatherDisplay:10.37,2013-02-14 14:39:00,
2013-02-14 09:40:00,38.6,30.0,30.00,West,269,4.6,4.6,71,0.00,CLR,SCT,0.00,WeatherDisplay:10.37,2013-02-14 14:40:00,
2013-02-14 09:41:00,38.6,30.4,30.00,West,269,3.5,3.5,72,0.00,CLR,SCT,0.00,WeatherDisplay:10.37,2013-02-14 14:41:00,
2013-02-14 09:42:00,38.6,30.4,30.00,West,261,5.8,5.8,72,0.00,CLR,SCT,0.00,WeatherDisplay:10.37,2013-02-14 14:42:00,
2013-02-14 09:47:00,39.1,30.8,30.00,WSW,240,9.0,9.0,72,0.00,CLR,SCT,0.00,WeatherDisplay:10.37,2013-02-14 14:47:00,
2013-02-14 09:48:00,39.1,30.5,30.00,WSW,239,9.2,9.2,71,0.00,CLR,SCT,0.00,WeatherDisplay:10.37,2013-02-14 14:48:00,
2013-02-14 09:49:00,39.2,30.6,30.00,SW,236,5.0,5.0,71,0.00,CLR,SCT,0.00,WeatherDisplay:10.37,2013-02-14 14:49:00,
2013-02-14 09:54:00,39.3,30.3,30.00,West,269,10.4,10.4,70,0.00,CLR,SCT,0.00,WeatherDisplay:10.37,2013-02-14 14:54:00,
2013-02-14 09:56:00,39.5,30.5,30.00,West,268,9.2,9.2,70,0.00,CLR,SCT,0.00,WeatherDisplay:10.37,2013-02-14 14:56:00,
2013-02-14 09:57:00,39.5,30.5,30.00,West,261,9.2,9.2,70,0.00,CLR,SCT,0.00,WeatherDisplay:10.37,2013-02-14 14:57:00,
2013-02-14 09:59:00,39.5,30.5,30.00,West,268,9.2,9.2,70,0.00,CLR,SCT,0.00,WeatherDisplay:10.37,2013-02-14 14:59:00,
2013-02-14 10:01:00,39.3,30.3,30.00,SW,234,5.8,5.8,70,0.00,CLR,SCT,0.00,WeatherDisplay:10.37,2013-02-14 15:01:00,
2013-02-14 10:02:00,39.3,30.3,30.00,SW,234,4.6,4.6,70,0.00,CLR,SCT,0.00,WeatherDisplay:10.37,2013-02-14 15:02:00,
2013-02-14 10:04:00,39.3,30.7,30.00,SW,235,3.5,3.5,71,0.00,CLR,SCT,0.00,WeatherDisplay:10.37,2013-02-14 15:04:00,
2013-02-14 10:07:00,39.2,30.2,30.00,WSW,258,6.9,6.9,70,0.00,CLR,SCT,0.00,WeatherDisplay:10.37,2013-02-14 15:07:00,
2013-02-14 10:12:00,39.1,30.1,30.00,WSW,239,7.0,7.0,70,0.00,CLR,SCT,0.00,WeatherDisplay:10.37,2013-02-14 15:12:00,
2013-02-14 10:16:00,39.1,30.1,30.00,WSW,237,4.6,4.6,70,0.00,CLR,SCT,0.00,WeatherDisplay:10.37,2013-02-14 15:16:00,
2013-02-14 10:17:00,39.1,30.1,30.00,WSW,242,6.9,6.9,70,0.00,CLR,SCT,0.00,WeatherDisplay:10.37,2013-02-14 15:17:00,
2013-02-14 10:20:00,39.1,30.1,30.00,WSW,257,4.6,4.6,70,0.00,CLR,SCT,0.00,WeatherDisplay:10.37,2013-02-14 15:20:00,
2013-02-14 10:22:00,39.1,30.1,30.00,WSW,258,6.0,6.0,70,0.00,CLR,SCT,0.00,WeatherDisplay:10.37,2013-02-14 15:22:00,
2013-02-14 10:23:00,38.9,29.9,30.00,WSW,257,9.2,9.2,70,0.00,CLR,SCT,0.00,WeatherDisplay:10.37,2013-02-14 15:23:00,
2013-02-14 10:24:00,39.1,30.1,30.00,WSW,257,6.9,6.9,70,0.00,CLR,SCT,0.00,WeatherDisplay:10.37,2013-02-14 15:24:00,
2013-02-14 10:26:00,39.1,30.1,30.00,West,262,5.8,5.8,70,0.00,CLR,SCT,0.00,WeatherDisplay:10.37,2013-02-14 15:26:00,
2013-02-14 10:29:00,39.2,30.2,30.00,WSW,253,10.4,10.4,70,0.00,CLR,SCT,0.00,WeatherDisplay:10.37,2013-02-14 15:29:00,
2013-02-14 10:32:00,39.5,30.2,30.00,West,262,9.2,9.2,69,0.00,CLR,SCT,0.00,WeatherDisplay:10.37,2013-02-14 15:32:00,
2013-02-14 10:33:00,39.5,30.5,30.00,West,266,3.5,3.5,70,0.00,CLR,SCT,0.00,WeatherDisplay:10.37,2013-02-14 15:33:00,
2013-02-14 10:34:00,39.6,30.6,30.00,West,269,7.0,7.0,70,0.00,CLR,SCT,0.00,WeatherDisplay:10.37,2013-02-14 15:34:00,
2013-02-14 10:36:00,39.8,30.8,30.00,WSW,245,5.8,5.8,70,0.00,CLR,SCT,0.00,WeatherDisplay:10.37,2013-02-14 15:36:00,
2013-02-14 10:39:00,39.9,30.9,30.00,SW,215,5.8,5.8,70,0.00,CLR,SCT,0.00,WeatherDisplay:10.37,2013-02-14 15:39:00,
2013-02-14 10:40:00,40.1,31.1,30.00,SSW,207,6.0,6.0,70,0.00,CLR,SCT,0.00,WeatherDisplay:10.37,2013-02-14 15:40:00,
2013-02-14 10:41:00,40.2,30.8,30.00,SSW,198,12.0,12.0,69,0.00,CLR,SCT,0.00,WeatherDisplay:10.37,2013-02-14 15:41:00,
2013-02-14 10:44:00,40.3,30.9,30.00,SSW,204,2.3,0.0,69,0.00,CLR,SCT,0.00,WeatherDisplay:10.37,2013-02-14 15:44:00,
2013-02-14 10:46:00,40.3,30.9,30.00,SW,227,5.8,5.8,69,0.00,CLR,SCT,0.00,WeatherDisplay:10.37,2013-02-14 15:46:00,
2013-02-14 10:47:00,40.5,31.1,30.00,WSW,251,9.2,9.2,69,0.00,CLR,SCT,0.00,WeatherDisplay:10.37,2013-02-14 15:47:00,
2013-02-14 10:49:00,40.6,31.2,30.00,SW,228,4.6,4.6,69,0.00,CLR,SCT,0.00,WeatherDisplay:10.37,2013-02-14 15:49:00,
2013-02-14 10:50:00,40.8,31.4,30.00,SW,230,4.6,4.6,69,0.00,CLR,SCT,0.00,WeatherDisplay:10.37,2013-02-14 15:50:00,
2013-02-14 10:51:00,40.8,31.4,30.00,WSW,241,3.5,3.5,69,0.00,CLR,SCT,0.00,WeatherDisplay:10.37,2013-02-14 15:51:00,
2013-02-14 10:53:00,41.1,32.1,30.00,WSW,246,5.0,5.0,70,0.00,CLR,SCT,0.00,WeatherDisplay:10.37,2013-02-14 15:53:00,
2013-02-14 10:55:00,41.1,31.7,30.00,SSW,208,6.0,6.0,69,0.00,CLR,SCT,0.00,WeatherDisplay:10.37,2013-02-14 15:55:00,
2013-02-14 10:56:00,41.2,31.8,30.00,SSW,209,6.9,6.9,69,0.00,CLR,SCT,0.00,WeatherDisplay:10.37,2013-02-14 15:56:00,
2013-02-14 10:59:00,41.3,31.9,30.00,WSW,254,3.5,3.5,69,0.00,CLR,SCT,0.00,WeatherDisplay:10.37,2013-02-14 15:59:00,
2013-02-14 11:00:00,41.3,31.9,30.00,West,273,10.4,10.4,69,0.00,CLR,SCT,0.00,WeatherDisplay:10.37,2013-02-14 16:00:00,
2013-02-14 11:02:00,41.6,32.2,29.99,WSW,248,10.4,10.4,69,0.00,CLR,SCT,0.00,WeatherDisplay:10.37,2013-02-14 16:02:00,
2013-02-14 11:04:00,41.6,31.8,29.99,West,262,11.5,11.5,68,0.00,CLR,SCT,0.00,WeatherDisplay:10.37,2013-02-14 16:04:00,
2013-02-14 11:05:00,41.6,31.8,29.99,SW,225,6.9,6.9,68,0.00,CLR,SCT,0.00,WeatherDisplay:10.37,2013-02-14 16:05:00,
2013-02-14 11:09:00,41.6,31.8,29.99,SW,219,8.1,8.1,68,0.00,CLR,SCT,0.00,WeatherDisplay:10.37,2013-02-14 16:09:00,
2013-02-14 11:10:00,41.6,31.8,29.99,SW,217,4.6,4.6,68,0.00,CLR,SCT,0.00,WeatherDisplay:10.37,2013-02-14 16:10:00,
2013-02-14 11:14:00,41.8,32.4,29.99,WSW,246,5.0,5.0,69,0.00,CLR,SCT,0.00,WeatherDisplay:10.37,2013-02-14 16:14:00,
2013-02-14 11:15:00,41.8,32.0,29.99,West,267,10.4,10.4,68,0.00,CLR,SCT,0.00,WeatherDisplay:10.37,2013-02-14 16:15:00,
2013-02-14 11:18:00,42.1,32.3,29.99,West,277,11.5,11.5,68,0.00,CLR,SCT,0.00,WeatherDisplay:10.37,2013-02-14 16:18:00,
2013-02-14 11:19:00,42.1,32.7,29.99,WNW,284,6.9,6.9,69,0.00,CLR,SCT,0.00,WeatherDisplay:10.37,2013-02-14 16:19:00,
2013-02-14 11:20:00,42.1,32.7,29.99,West,280,5.8,5.8,69,0.00,CLR,SCT,0.00,WeatherDisplay:10.37,2013-02-14 16:20:00,
2013-02-14 11:22:00,42.2,32.8,29.99,West,275,5.0,5.0,69,0.00,CLR,SCT,0.00,WeatherDisplay:10.37,2013-02-14 16:22:00,
2013-02-14 11:23:00,42.2,32.8,29.99,West,276,9.2,9.2,69,0.00,CLR,SCT,0.00,WeatherDisplay:10.37,2013-02-14 16:23:00,
2013-02-14 11:27:00,42.3,32.8,29.98,West,281,0.0,0.0,69,0.00,CLR,SCT,0.00,WeatherDisplay:10.37,2013-02-14 16:27:00,
2013-02-14 11:30:00,42.3,32.8,29.98,NW,309,3.0,3.0,69,0.00,CLR,SCT,0.00,WeatherDisplay:10.37,2013-02-14 16:30:00,
2013-02-14 11:32:00,42.5,33.0,29.98,NW,309,3.5,0.0,69,0.00,CLR,SCT,0.00,WeatherDisplay:10.37,2013-02-14 16:32:00,
2013-02-14 11:34:00,42.5,33.0,29.98,NW,309,0.0,0.0,69,0.00,CLR,SCT,0.00,WeatherDisplay:10.37,2013-02-14 16:34:00,
2013-02-14 11:35:00,42.5,33.0,29.98,NW,309,2.0,2.0,69,0.00,CLR,SCT,0.00,WeatherDisplay:10.37,2013-02-14 16:35:00,
2013-02-14 11:37:00,42.6,33.1,29.98,WNW,289,4.6,4.6,69,0.00,CLR,SCT,0.00,WeatherDisplay:10.37,2013-02-14 16:37:00,
2013-02-14 11:39:00,42.8,33.3,29.98,WNW,288,0.0,0.0,69,0.00,CLR,SCT,0.00,WeatherDisplay:10.37,2013-02-14 16:39:00,
2013-02-14 11:40:00,42.8,33.3,29.98,WSW,257,5.8,5.8,69,0.00,CLR,SCT,0.00,WeatherDisplay:10.37,2013-02-14 16:40:00,
2013-02-14 11:41:00,42.8,33.3,29.98,WSW,246,6.9,6.9,69,0.00,CLR,SCT,0.00,WeatherDisplay:10.37,2013-02-14 16:41:00,
2013-02-14 11:42:00,42.8,33.3,29.98,WSW,247,5.8,5.8,69,0.00,CLR,SCT,0.00,WeatherDisplay:10.37,2013-02-14 16:42:00,
2013-02-14 11:45:00,42.9,33.1,29.98,West,271,6.0,6.0,68,0.00,CLR,SCT,0.00,WeatherDisplay:10.37,2013-02-14 16:45:00,
2013-02-14 11:46:00,42.9,33.1,29.98,West,273,6.9,6.9,68,0.00,CLR,SCT,0.00,WeatherDisplay:10.37,2013-02-14 16:46:00,
2013-02-14 11:47:00,42.9,33.1,29.98,West,273,3.5,3.5,68,0.00,CLR,SCT,0.00,WeatherDisplay:10.37,2013-02-14 16:47:00,
2013-02-14 11:51:00,42.8,32.6,29.98,West,272,9.2,9.2,67,0.00,CLR,SCT,0.00,WeatherDisplay:10.37,2013-02-14 16:51:00,
2013-02-14 11:53:00,42.8,32.2,29.98,West,262,11.5,11.5,66,0.00,CLR,SCT,0.00,WeatherDisplay:10.37,2013-02-14 16:53:00,
2013-02-14 11:54:00,42.8,32.2,29.98,West,259,5.8,5.8,66,0.00,CLR,SCT,0.00,WeatherDisplay:10.37,2013-02-14 16:54:00,
2013-02-14 11:57:00,42.8,32.6,29.98,West,263,3.0,3.0,67,0.00,CLR,SCT,0.00,WeatherDisplay:10.37,2013-02-14 16:57:00,
2013-02-14 11:59:00,42.8,32.6,29.98,SSW,209,4.6,4.6,67,0.00,CLR,SCT,0.00,WeatherDisplay:10.37,2013-02-14 16:59:00,
2013-02-14 12:04:00,42.9,33.1,29.97,WSW,253,10.0,10.0,68,0.00,CLR,SCT,0.00,WeatherDisplay:10.37,2013-02-14 17:04:00,
2013-02-14 12:05:00,43.1,32.9,29.97,WNW,283,11.5,11.5,67,0.00,CLR,SCT,0.00,WeatherDisplay:10.37,2013-02-14 17:05:00,
2013-02-14 12:08:00,43.1,32.1,29.97,WSW,246,6.9,6.9,65,0.00,CLR,SCT,0.00,WeatherDisplay:10.37,2013-02-14 17:08:00,
2013-02-14 12:09:00,43.1,32.5,29.97,WSW,251,6.0,6.0,66,0.00,CLR,SCT,0.00,WeatherDisplay:10.37,2013-02-14 17:09:00,
2013-02-14 12:12:00,43.1,32.5,29.97,WSW,252,3.5,3.5,66,0.00,CLR,SCT,0.00,WeatherDisplay:10.37,2013-02-14 17:12:00,
2013-02-14 12:13:00,43.2,32.6,29.97,WSW,253,3.5,3.5,66,0.00,CLR,SCT,0.00,WeatherDisplay:10.37,2013-02-14 17:13:00,
2013-02-14 12:15:00,43.2,32.2,29.97,WSW,242,5.8,5.8,65,0.00,CLR,SCT,0.00,WeatherDisplay:10.37,2013-02-14 17:15:00,
2013-02-14 12:18:00,43.2,32.6,29.97,WSW,244,3.0,3.0,66,0.00,CLR,SCT,0.00,WeatherDisplay:10.37,2013-02-14 17:18:00,
2013-02-14 12:20:00,43.3,32.7,29.96,WSW,257,6.0,6.0,66,0.00,CLR,SCT,0.00,WeatherDisplay:10.37,2013-02-14 17:20:00,
2013-02-14 12:21:00,43.3,32.7,29.96,WSW,257,6.9,6.9,66,0.00,CLR,SCT,0.00,WeatherDisplay:10.37,2013-02-14 17:21:00,
2013-02-14 12:23:00,43.3,32.3,29.96,West,261,3.5,3.5,65,0.00,CLR,SCT,0.00,WeatherDisplay:10.37,2013-02-14 17:23:00,
2013-02-14 12:25:00,43.5,32.9,29.96,West,261,0.0,0.0,66,0.00,CLR,SCT,0.00,WeatherDisplay:10.37,2013-02-14 17:25:00,
2013-02-14 12:28:00,43.6,33.0,29.96,West,261,0.0,0.0,66,0.00,CLR,SCT,0.00,WeatherDisplay:10.37,2013-02-14 17:28:00,
2013-02-14 12:29:00,43.6,33.0,29.96,West,269,10.0,10.0,66,0.00,CLR,SCT,0.00,WeatherDisplay:10.37,2013-02-14 17:29:00,
2013-02-14 12:33:00,43.8,32.8,29.96,West,268,5.8,5.8,65,0.00,CLR,SCT,0.00,WeatherDisplay:10.37,2013-02-14 17:33:00,
2013-02-14 12:34:00,43.8,32.8,29.96,West,267,3.5,3.5,65,0.00,CLR,SCT,0.00,WeatherDisplay:10.37,2013-02-14 17:34:00,
2013-02-14 12:36:00,43.9,33.3,29.96,West,267,2.3,0.0,66,0.00,CLR,SCT,0.00,WeatherDisplay:10.37,2013-02-14 17:36:00,
2013-02-14 12:38:00,43.9,33.3,29.96,WSW,257,5.8,5.8,66,0.00,CLR,SCT,0.00,WeatherDisplay:10.37,2013-02-14 17:38:00,
2013-02-14 12:41:00,44.2,33.6,29.96,West,269,3.5,3.5,66,0.00,CLR,SCT,0.00,WeatherDisplay:10.37,2013-02-14 17:41:00,
2013-02-14 12:42:00,44.2,33.2,29.96,West,273,5.0,5.0,65,0.00,CLR,SCT,0.00,WeatherDisplay:10.37,2013-02-14 17:42:00,
2013-02-14 12:47:00,44.6,33.2,29.96,SW,216,6.9,6.9,64,0.00,CLR,SCT,0.00,WeatherDisplay:10.37,2013-02-14 17:47:00,
2013-02-14 12:48:00,44.6,33.2,29.96,WSW,244,8.0,8.0,64,0.00,CLR,SCT,0.00,WeatherDisplay:10.37,2013-02-14 17:48:00,
2013-02-14 12:52:00,44.8,33.0,29.96,WSW,253,10.4,10.4,63,0.00,CLR,SCT,0.00,WeatherDisplay:10.37,2013-02-14 17:52:00,
2013-02-14 12:53:00,44.8,33.0,29.96,WSW,254,13.0,13.0,63,0.00,CLR,SCT,0.00,WeatherDisplay:10.37,2013-02-14 17:53:00,
2013-02-14 12:55:00,44.6,32.4,29.95,West,267,11.5,11.5,62,0.00,CLR,SCT,0.00,WeatherDisplay:10.37,2013-02-14 17:55:00,
2013-02-14 13:00:00,44.9,33.5,29.95,West,275,6.9,6.9,64,0.00,CLR,SCT,0.00,WeatherDisplay:10.37,2013-02-14 18:00:00,
2013-02-14 13:02:00,44.9,33.1,29.95,West,271,8.1,8.1,63,0.00,CLR,SCT,0.00,WeatherDisplay:10.37,2013-02-14 18:02:00,
2013-02-14 13:04:00,45.1,33.6,29.95,West,273,4.0,4.0,64,0.00,CLR,SCT,0.00,WeatherDisplay:10.37,2013-02-14 18:04:00,
2013-02-14 13:06:00,45.2,33.7,29.95,NNW,331,9.2,9.2,64,0.00,,SCT,0.00,WeatherDisplay:10.37,2013-02-14 18:06:00,
2013-02-14 13:07:00,45.2,33.7,29.95,West,278,9.2,9.2,64,0.00,,SCT,0.00,WeatherDisplay:10.37,2013-02-14 18:07:00,
2013-02-14 13:11:00,45.7,33.8,29.95,WSW,251,9.0,9.0,63,0.00,,SCT,0.00,WeatherDisplay:10.37,2013-02-14 18:11:00,
2013-02-14 13:12:00,45.7,33.4,29.95,West,261,11.5,11.5,62,0.00,,SCT,0.00,WeatherDisplay:10.37,2013-02-14 18:12:00,
2013-02-14 13:14:00,45.7,33.4,29.95,WSW,252,6.9,6.9,62,0.00,,SCT,0.00,WeatherDisplay:10.37,2013-02-14 18:14:00,
2013-02-14 13:17:00,45.8,33.5,29.95,West,275,5.0,5.0,62,0.00,,SCT,0.00,WeatherDisplay:10.37,2013-02-14 18:17:00,
2013-02-14 13:18:00,46.0,34.1,29.95,WNW,282,9.2,9.2,63,0.00,,SCT,0.00,WeatherDisplay:10.37,2013-02-14 18:18:00,
2013-02-14 13:19:00,46.0,33.7,29.95,WNW,290,9.2,9.2,62,0.00,,SCT,0.00,WeatherDisplay:10.37,2013-02-14 18:19:00,
2013-02-14 13:23:00,46.1,33.8,29.95,WSW,251,12.7,12.7,62,0.00,,SCT,0.00,WeatherDisplay:10.37,2013-02-14 18:23:00,
2013-02-14 13:24:00,46.1,33.0,29.95,West,263,11.5,11.5,60,0.00,,SCT,0.00,WeatherDisplay:10.37,2013-02-14 18:24:00,
2013-02-14 13:25:00,46.1,33.8,29.95,West,272,4.6,4.6,62,0.00,,SCT,0.00,WeatherDisplay:10.37,2013-02-14 18:25:00,
2013-02-14 13:26:00,46.1,33.8,29.95,West,272,5.8,5.8,62,0.00,,SCT,0.00,WeatherDisplay:10.37,2013-02-14 18:26:00,
2013-02-14 13:29:00,46.2,33.5,29.94,West,261,9.2,9.2,61,0.00,,SCT,0.00,WeatherDisplay:10.37,2013-02-14 18:29:00,
2013-02-14 13:30:00,46.2,33.5,29.94,West,259,5.8,5.8,61,0.00,,SCT,0.00,WeatherDisplay:10.37,2013-02-14 18:30:00,
2013-02-14 13:31:00,46.4,34.1,29.94,West,261,9.2,9.2,62,0.00,,SCT,0.00,WeatherDisplay:10.37,2013-02-14 18:31:00,
2013-02-14 13:36:00,46.5,33.4,29.94,WSW,252,13.8,13.8,60,0.00,,SCT,0.00,WeatherDisplay:10.37,2013-02-14 18:36:00,
2013-02-14 13:37:00,46.5,32.9,29.94,WSW,250,11.5,11.5,59,0.00,,SCT,0.00,WeatherDisplay:10.37,2013-02-14 18:37:00,
2013-02-14 13:40:00,46.5,32.9,29.94,WSW,252,11.0,11.0,59,0.00,,SCT,0.00,WeatherDisplay:10.37,2013-02-14 18:40:00,
2013-02-14 13:41:00,46.5,32.9,29.94,West,271,11.5,11.5,59,0.00,,SCT,0.00,WeatherDisplay:10.37,2013-02-14 18:41:00,
2013-02-14 13:45:00,46.7,33.5,29.94,NW,325,4.6,4.6,60,0.00,,SCT,0.00,WeatherDisplay:10.37,2013-02-14 18:45:00,
2013-02-14 13:47:00,46.8,33.6,29.94,NNW,331,4.6,4.6,60,0.00,,SCT,0.00,WeatherDisplay:10.37,2013-02-14 18:47:00,
2013-02-14 13:49:00,46.8,33.2,29.94,West,274,9.2,9.2,59,0.00,,SCT,0.00,WeatherDisplay:10.37,2013-02-14 18:49:00,
2013-02-14 13:51:00,47.0,33.8,29.94,West,274,3.5,3.5,60,0.00,,SCT,0.00,WeatherDisplay:10.37,2013-02-14 18:51:00,
2013-02-14 13:54:00,47.0,33.4,29.94,SW,223,6.9,6.9,59,0.00,,SCT,0.00,WeatherDisplay:10.37,2013-02-14 18:54:00,
2013-02-14 13:56:00,47.1,33.5,29.94,WSW,242,6.9,6.9,59,0.00,,SCT,0.00,WeatherDisplay:10.37,2013-02-14 18:56:00,
2013-02-14 14:00:00,47.3,34.1,29.93,West,268,9.2,9.2,60,0.00,,SCT,0.00,WeatherDisplay:10.37,2013-02-14 19:00:00,
2013-02-14 14:01:00,47.3,33.3,29.93,West,275,11.5,11.5,58,0.00,,SCT,0.00,WeatherDisplay:10.37,2013-02-14 19:01:00,
2013-02-14 14:03:00,47.4,33.8,29.93,NW,304,9.2,9.2,59,0.00,,SCT,0.00,WeatherDisplay:10.37,2013-02-14 19:03:00,
2013-02-14 14:05:00,47.4,33.8,29.93,NW,304,4.0,4.0,59,0.00,,SCT,0.00,WeatherDisplay:10.37,2013-02-14 19:05:00,
2013-02-14 14:08:00,47.4,33.8,29.92,NW,304,3.5,3.5,59,0.00,,SCT,0.00,WeatherDisplay:10.37,2013-02-14 19:08:00,
2013-02-14 14:09:00,47.6,34.4,29.92,NW,304,3.5,3.5,60,0.00,,SCT,0.00,WeatherDisplay:10.37,2013-02-14 19:09:00,
2013-02-14 14:11:00,47.6,34.8,29.92,NNW,338,4.6,4.6,61,0.00,,SCT,0.00,WeatherDisplay:10.37,2013-02-14 19:11:00,
2013-02-14 14:13:00,47.7,34.5,29.92,WNW,296,4.6,4.6,60,0.00,,SCT,0.00,WeatherDisplay:10.37,2013-02-14 19:13:00,
2013-02-14 14:17:00,48.0,34.8,29.92,SW,235,3.5,3.5,60,0.00,,SCT,0.00,WeatherDisplay:10.37,2013-02-14 19:17:00,
2013-02-14 14:19:00,48.0,34.8,29.91,West,263,6.9,6.9,60,0.00,,SCT,0.00,WeatherDisplay:10.37,2013-02-14 19:19:00,
2013-02-14 14:22:00,48.0,34.3,29.91,WSW,242,4.0,4.0,59,0.00,,SCT,0.00,WeatherDisplay:10.37,2013-02-14 19:22:00,
2013-02-14 14:25:00,48.0,34.3,29.91,West,266,10.4,10.4,59,0.00,,SCT,0.00,WeatherDisplay:10.37,2013-02-14 19:25:00,
2013-02-14 14:28:00,48.2,34.5,29.91,WNW,295,5.8,5.8,59,0.00,,SCT,0.00,WeatherDisplay:10.37,2013-02-14 19:28:00,
2013-02-14 14:30:00,48.0,34.3,29.91,WNW,297,3.5,3.5,59,0.00,,SCT,0.00,WeatherDisplay:10.37,2013-02-14 19:30:00,
2013-02-14 14:34:00,48.2,34.5,29.91,WNW,297,3.5,3.5,59,0.00,,SCT,0.00,WeatherDisplay:10.37,2013-02-14 19:34:00,
2013-02-14 14:35:00,48.2,34.5,29.91,WNW,297,3.5,3.5,59,0.00,,SCT,0.00,WeatherDisplay:10.37,2013-02-14 19:35:00,
2013-02-14 14:39:00,48.3,34.2,29.91,West,269,9.2,9.2,58,0.00,,SCT,0.00,WeatherDisplay:10.37,2013-02-14 19:39:00,
2013-02-14 14:41:00,48.3,34.2,29.91,West,276,9.2,9.2,58,0.00,,SCT,0.00,WeatherDisplay:10.37,2013-02-14 19:41:00,
2013-02-14 14:45:00,48.3,34.6,29.91,West,259,6.0,6.0,59,0.00,,SCT,0.00,WeatherDisplay:10.37,2013-02-14 19:45:00,
2013-02-14 14:49:00,48.5,34.4,29.91,West,275,6.9,6.9,58,0.00,,SCT,0.00,WeatherDisplay:10.37,2013-02-14 19:49:00,
2013-02-14 14:50:00,48.5,34.4,29.91,West,268,4.6,4.6,58,0.00,,SCT,0.00,WeatherDisplay:10.37,2013-02-14 19:50:00,
2013-02-14 14:55:00,48.6,34.5,29.91,SW,221,4.6,4.6,58,0.00,,SCT,0.00,WeatherDisplay:10.37,2013-02-14 19:55:00,
2013-02-14 14:57:00,48.8,34.2,29.91,WSW,240,6.9,6.9,57,0.00,,SCT,0.00,WeatherDisplay:10.37,2013-02-14 19:57:00,
2013-02-14 15:00:00,48.8,33.3,29.92,SSW,199,11.5,11.5,55,0.00,,SCT,0.00,WeatherDisplay:10.37,2013-02-14 20:00:00,
2013-02-14 15:02:00,48.9,33.9,29.92,SSW,203,6.9,6.9,56,0.00,,SCT,0.00,WeatherDisplay:10.37,2013-02-14 20:02:00,
2013-02-14 15:05:00,48.9,33.9,29.92,SSW,200,10.4,10.4,56,0.00,,SCT,0.00,WeatherDisplay:10.37,2013-02-14 20:05:00,
2013-02-14 15:10:00,49.1,34.5,29.92,South,188,4.6,4.6,57,0.00,,SCT,0.00,WeatherDisplay:10.37,2013-02-14 20:10:00,
2013-02-14 15:11:00,49.1,34.5,29.92,South,188,3.5,3.5,57,0.00,,SCT,0.00,WeatherDisplay:10.37,2013-02-14 20:11:00,
2013-02-14 15:15:00,49.2,34.2,29.92,SW,219,5.8,5.8,56,0.00,,SCT,0.00,WeatherDisplay:10.37,2013-02-14 20:15:00,
2013-02-14 15:16:00,49.4,33.9,29.92,SW,218,6.9,6.9,55,0.00,,SCT,0.00,WeatherDisplay:10.37,2013-02-14 20:16:00,
2013-02-14 15:20:00,49.5,33.5,29.92,WSW,251,10.0,10.0,54,0.00,,SCT,0.00,WeatherDisplay:10.37,2013-02-14 20:20:00,
2013-02-14 15:21:00,49.5,34.0,29.92,West,261,12.7,12.7,55,0.00,,SCT,0.00,WeatherDisplay:10.37,2013-02-14 20:21:00,
2013-02-14 15:25:00,49.5,34.0,29.92,WSW,252,6.0,6.0,55,0.00,,SCT,0.00,WeatherDisplay:10.37,2013-02-14 20:25:00,
2013-02-14 15:28:00,49.5,33.5,29.92,SW,217,11.5,11.5,54,0.00,,SCT,0.00,WeatherDisplay:10.37,2013-02-14 20:28:00,
2013-02-14 15:30:00,49.5,33.5,29.92,West,274,10.4,10.4,54,0.00,,SCT,0.00,WeatherDisplay:10.37,2013-02-14 20:30:00,
2013-02-14 15:33:00,49.5,33.1,29.92,West,259,12.7,12.7,53,0.00,,SCT,0.00,WeatherDisplay:10.37,2013-02-14 20:33:00,
2013-02-14 15:35:00,49.4,33.4,29.92,WSW,250,4.6,5.4,54,0.00,,SCT,0.00,WeatherDisplay:10.37,2013-02-14 20:35:00,
2013-02-14 15:38:00,49.4,33.4,29.92,West,263,8.0,8.0,54,0.00,,SCT,0.00,WeatherDisplay:10.37,2013-02-14 20:38:00,
2013-02-14 15:41:00,49.4,33.0,29.92,WSW,256,11.5,11.5,53,0.00,,SCT,0.00,WeatherDisplay:10.37,2013-02-14 20:41:00,
2013-02-14 15:44:00,49.2,32.8,29.92,WSW,255,11.5,11.5,53,0.00,,SCT,0.00,WeatherDisplay:10.37,2013-02-14 20:44:00,
2013-02-14 15:46:00,49.2,32.8,29.92,West,269,8.1,8.1,53,0.00,,SCT,0.00,WeatherDisplay:10.37,2013-02-14 20:46:00,
2013-02-14 15:51:00,49.4,32.5,29.92,West,263,16.1,16.1,52,0.00,,SCT,0.00,WeatherDisplay:10.37,2013-02-14 20:51:00,
2013-02-14 15:52:00,49.4,32.5,29.92,WSW,254,15.0,15.0,52,0.00,,SCT,0.00,WeatherDisplay:10.37,2013-02-14 20:52:00,
2013-02-14 15:57:00,49.5,33.1,29.92,West,262,9.2,9.2,53,0.00,,SCT,0.00,WeatherDisplay:10.37,2013-02-14 20:57:00,
2013-02-14 16:00:00,49.5,32.6,29.92,West,268,11.5,11.5,52,0.00,,SCT,0.00,WeatherDisplay:10.37,2013-02-14 21:00:00,
2013-02-14 16:02:00,49.5,32.6,29.92,West,261,10.4,10.4,52,0.00,,SCT,0.00,WeatherDisplay:10.37,2013-02-14 21:02:00,
2013-02-14 16:06:00,49.5,33.1,29.92,SW,229,6.9,6.9,53,0.00,CLR,SCT,0.00,WeatherDisplay:10.37,2013-02-14 21:06:00,
2013-02-14 16:08:00,49.5,33.1,29.92,SW,235,4.6,4.6,53,0.00,CLR,SCT,0.00,WeatherDisplay:10.37,2013-02-14 21:08:00,
2013-02-14 16:11:00,49.6,32.7,29.92,SW,225,11.5,11.5,52,0.00,CLR,SCT,0.00,WeatherDisplay:10.37,2013-02-14 21:11:00,
2013-02-14 16:13:00,49.6,32.7,29.92,West,271,6.9,6.9,52,0.00,CLR,SCT,0.00,WeatherDisplay:10.37,2013-02-14 21:13:00,
2013-02-14 16:14:00,49.6,32.7,29.92,West,262,9.2,9.2,52,0.00,CLR,SCT,0.00,WeatherDisplay:10.37,2013-02-14 21:14:00,
2013-02-14 16:17:00,49.6,32.7,29.92,SW,232,6.9,6.9,52,0.00,CLR,SCT,0.00,WeatherDisplay:10.37,2013-02-14 21:17:00,
2013-02-14 16:19:00,49.6,32.7,29.92,WSW,244,6.9,6.9,52,0.00,CLR,SCT,0.00,WeatherDisplay:10.37,2013-02-14 21:19:00,
2013-02-14 16:22:00,49.6,32.7,29.92,WSW,249,8.1,8.1,52,0.00,CLR,SCT,0.00,WeatherDisplay:10.37,2013-02-14 21:22:00,
2013-02-14 16:26:00,49.8,32.4,29.92,WSW,237,10.4,10.4,51,0.00,CLR,SCT,0.00,WeatherDisplay:10.37,2013-02-14 21:26:00,
2013-02-14 16:28:00,49.8,32.4,29.92,SW,227,8.1,8.1,51,0.00,CLR,SCT,0.00,WeatherDisplay:10.37,2013-02-14 21:28:00,
2013-02-14 16:31:00,49.8,32.4,29.92,West,261,11.5,11.5,51,0.00,CLR,SCT,0.00,WeatherDisplay:10.37,2013-02-14 21:31:00,
2013-02-14 16:33:00,49.8,32.4,29.92,West,271,11.5,11.5,51,0.00,CLR,SCT,0.00,WeatherDisplay:10.37,2013-02-14 21:33:00,
2013-02-14 16:34:00,49.8,32.4,29.92,West,265,10.4,10.4,51,0.00,CLR,SCT,0.00,WeatherDisplay:10.37,2013-02-14 21:34:00,
2013-02-14 16:36:00,49.8,32.9,29.92,West,271,6.0,6.0,52,0.00,CLR,SCT,0.00,WeatherDisplay:10.37,2013-02-14 21:36:00,
2013-02-14 16:38:00,49.8,32.4,29.92,West,259,10.4,10.4,51,0.00,CLR,SCT,0.00,WeatherDisplay:10.37,2013-02-14 21:38:00,
2013-02-14 16:39:00,49.8,32.4,29.92,WSW,244,10.4,10.4,51,0.00,CLR,SCT,0.00,WeatherDisplay:10.37,2013-02-14 21:39:00,
2013-02-14 16:41:00,49.8,32.4,29.92,WSW,240,9.0,9.0,51,0.00,CLR,SCT,0.00,WeatherDisplay:10.37,2013-02-14 21:41:00,
2013-02-14 16:43:00,49.8,32.4,29.92,West,260,9.2,9.2,51,0.00,CLR,SCT,0.00,WeatherDisplay:10.37,2013-02-14 21:43:00,
2013-02-14 16:47:00,49.9,32.5,29.93,West,262,9.2,9.2,51,0.00,CLR,SCT,0.00,WeatherDisplay:10.37,2013-02-14 21:47:00,
2013-02-14 16:50:00,49.8,32.4,29.93,WSW,256,9.2,9.2,51,0.00,CLR,SCT,0.00,WeatherDisplay:10.37,2013-02-14 21:50:00,
2013-02-14 16:51:00,49.8,32.4,29.93,WSW,253,6.9,6.9,51,0.00,CLR,SCT,0.00,WeatherDisplay:10.37,2013-02-14 21:51:00,
2013-02-14 16:52:00,49.8,32.4,29.93,West,269,7.0,7.0,51,0.00,CLR,SCT,0.00,WeatherDisplay:10.37,2013-02-14 21:52:00,
2013-02-14 16:55:00,49.8,31.9,29.93,West,267,10.4,10.4,50,0.00,CLR,SCT,0.00,WeatherDisplay:10.37,2013-02-14 21:55:00,
2013-02-14 16:57:00,49.8,31.9,29.93,West,259,9.2,9.2,50,0.00,CLR,SCT,0.00,WeatherDisplay:10.37,2013-02-14 21:57:00,
2013-02-14 16:58:00,49.6,31.7,29.93,West,268,10.4,10.4,50,0.00,CLR,SCT,0.00,WeatherDisplay:10.37,2013-02-14 21:58:00,
2013-02-14 16:59:00,49.6,31.7,29.93,WSW,258,11.5,11.5,50,0.00,CLR,SCT,0.00,WeatherDisplay:10.37,2013-02-14 21:59:00,
2013-02-14 17:02:00,49.6,32.2,29.93,West,265,10.4,10.4,51,0.00,CLR,SCT,0.00,WeatherDisplay:10.37,2013-02-14 22:02:00,
2013-02-14 17:04:00,49.6,32.2,29.93,SW,234,5.8,5.8,51,0.00,CLR,SCT,0.00,WeatherDisplay:10.37,2013-02-14 22:04:00,
2013-02-14 17:07:00,49.6,32.2,29.94,WSW,255,8.1,8.1,51,0.00,CLR,SCT,0.00,WeatherDisplay:10.37,2013-02-14 22:07:00,
2013-02-14 17:08:00,49.6,32.2,29.94,WSW,256,4.6,4.6,51,0.00,CLR,SCT,0.00,WeatherDisplay:10.37,2013-02-14 22:08:00,
2013-02-14 17:10:00,49.6,32.7,29.94,WSW,256,3.5,3.5,52,0.00,CLR,SCT,0.00,WeatherDisplay:10.37,2013-02-14 22:10:00,
2013-02-14 17:12:00,49.6,32.7,29.94,West,263,4.0,4.0,52,0.00,CLR,SCT,0.00,WeatherDisplay:10.37,2013-02-14 22:12:00,
2013-02-14 17:13:00,49.6,32.7,29.94,West,263,4.6,4.6,52,0.00,CLR,SCT,0.00,WeatherDisplay:10.37,2013-02-14 22:13:00,
2013-02-14 17:14:00,49.6,32.7,29.94,West,263,4.6,4.6,52,0.00,CLR,SCT,0.00,WeatherDisplay:10.37,2013-02-14 22:14:00,
2013-02-14 17:15:00,49.8,32.9,29.94,West,263,3.5,3.5,52,0.00,CLR,SCT,0.00,WeatherDisplay:10.37,2013-02-14 22:15:00,
2013-02-14 17:17:00,49.8,32.9,29.94,West,263,3.5,3.5,52,0.00,CLR,SCT,0.00,WeatherDisplay:10.37,2013-02-14 22:17:00,
2013-02-14 17:19:00,49.8,32.9,29.94,West,263,3.5,3.5,52,0.00,CLR,SCT,0.00,WeatherDisplay:10.37,2013-02-14 22:19:00,
2013-02-14 17:23:00,49.8,32.9,29.94,West,263,4.6,4.6,52,0.00,CLR,SCT,0.00,WeatherDisplay:10.37,2013-02-14 22:23:00,
2013-02-14 17:24:00,49.6,32.2,29.94,West,270,4.6,4.6,51,0.00,CLR,SCT,0.00,WeatherDisplay:10.37,2013-02-14 22:24:00,
2013-02-14 17:26:00,49.6,32.2,29.94,West,269,6.9,6.9,51,0.00,CLR,SCT,0.00,WeatherDisplay:10.37,2013-02-14 22:26:00,
2013-02-14 17:29:00,49.5,32.1,29.94,West,262,4.0,4.0,51,0.00,CLR,SCT,0.00,WeatherDisplay:10.37,2013-02-14 22:29:00,
2013-02-14 17:31:00,49.5,32.6,29.94,WSW,256,5.8,5.8,52,0.00,CLR,SCT,0.00,WeatherDisplay:10.37,2013-02-14 22:31:00,
2013-02-14 17:32:00,49.5,32.6,29.94,WSW,257,3.5,3.5,52,0.00,CLR,SCT,0.00,WeatherDisplay:10.37,2013-02-14 22:32:00,
2013-02-14 17:35:00,49.4,32.5,29.94,WSW,257,3.5,3.5,52,0.00,CLR,SCT,0.00,WeatherDisplay:10.37,2013-02-14 22:35:00,
2013-02-14 17:36:00,49.4,32.5,29.94,WSW,258,3.5,3.5,52,0.00,CLR,SCT,0.00,WeatherDisplay:10.37,2013-02-14 22:36:00,
2013-02-14 17:37:00,49.2,32.3,29.94,WSW,258,4.6,4.6,52,0.00,CLR,SCT,0.00,WeatherDisplay:10.37,2013-02-14 22:37:00,
2013-02-14 17:39:00,49.2,32.3,29.94,WSW,258,3.5,3.5,52,0.00,CLR,SCT,0.00,WeatherDisplay:10.37,2013-02-14 22:39:00,
2013-02-14 17:42:00,49.1,32.2,29.94,WSW,258,2.3,2.3,52,0.00,CLR,SCT,0.00,WeatherDisplay:10.37,2013-02-14 22:42:00,
2013-02-14 17:43:00,48.9,32.0,29.94,WSW,258,2.3,2.3,52,0.00,CLR,SCT,0.00,WeatherDisplay:10.37,2013-02-14 22:43:00,
2013-02-14 17:44:00,48.9,32.5,29.94,WSW,258,2.3,2.3,53,0.00,CLR,SCT,0.00,WeatherDisplay:10.37,2013-02-14 22:44:00,
2013-02-14 17:48:00,48.6,32.2,29.94,WSW,258,2.3,2.3,53,0.00,CLR,SCT,0.00,WeatherDisplay:10.37,2013-02-14 22:48:00,
2013-02-14 17:49:00,48.6,32.2,29.94,WSW,258,2.3,2.3,53,0.00,CLR,SCT,0.00,WeatherDisplay:10.37,2013-02-14 22:49:00,
2013-02-14 17:50:00,48.5,32.1,29.94,WSW,258,2.3,2.3,53,0.00,CLR,SCT,0.00,WeatherDisplay:10.37,2013-02-14 22:50:00,
2013-02-14 17:51:00,48.5,32.1,29.94,WSW,258,2.3,2.3,53,0.00,CLR,SCT,0.00,WeatherDisplay:10.37,2013-02-14 22:51:00,
2013-02-14 17:54:00,48.3,31.9,29.94,WSW,258,1.1,1.1,53,0.00,CLR,SCT,0.00,WeatherDisplay:10.37,2013-02-14 22:54:00,
2013-02-14 17:56:00,48.2,31.9,29.94,WSW,258,0.0,0.0,53,0.00,CLR,SCT,0.00,WeatherDisplay:10.37,2013-02-14 22:56:00,
2013-02-14 17:57:00,48.2,31.9,29.94,WSW,258,0.0,0.0,53,0.00,CLR,SCT,0.00,WeatherDisplay:10.37,2013-02-14 22:57:00,
2013-02-14 17:58:00,48.0,31.7,29.94,WSW,258,0.0,0.0,53,0.00,CLR,SCT,0.00,WeatherDisplay:10.37,2013-02-14 22:58:00,
2013-02-14 18:00:00,47.9,32.0,29.94,WSW,258,0.0,0.0,54,0.00,CLR,SCT,0.00,WeatherDisplay:10.37,2013-02-14 23:00:00,
2013-02-14 18:03:00,47.6,31.8,29.94,WSW,258,0.0,0.0,54,0.00,CLR,SCT,0.00,WeatherDisplay:10.37,2013-02-14 23:03:00,
2013-02-14 18:05:00,47.4,31.6,29.94,WSW,258,0.0,0.0,54,0.00,CLR,SCT,0.00,WeatherDisplay:10.37,2013-02-14 23:05:00,
2013-02-14 18:06:00,47.3,31.5,29.94,WSW,258,0.0,0.0,54,0.00,CLR,SCT,0.00,WeatherDisplay:10.37,2013-02-14 23:06:00,
2013-02-14 18:08:00,47.1,31.3,29.94,WSW,258,0.0,0.0,54,0.00,CLR,SCT,0.00,WeatherDisplay:10.37,2013-02-14 23:08:00,
2013-02-14 18:11:00,46.8,31.0,29.94,WSW,258,0.0,0.0,54,0.00,CLR,SCT,0.00,WeatherDisplay:10.37,2013-02-14 23:11:00,
2013-02-14 18:12:00,46.7,30.9,29.94,WSW,258,0.0,0.0,54,0.00,CLR,SCT,0.00,WeatherDisplay:10.37,2013-02-14 23:12:00,
2013-02-14 18:13:00,46.5,30.7,29.94,WSW,258,0.0,0.0,54,0.00,CLR,SCT,0.00,WeatherDisplay:10.37,2013-02-14 23:13:00,
2013-02-14 18:17:00,46.2,30.5,29.94,WSW,258,0.0,0.0,54,0.00,CLR,SCT,0.00,WeatherDisplay:10.37,2013-02-14 23:17:00,
2013-02-14 18:18:00,46.1,30.8,29.94,WSW,258,0.0,0.0,55,0.00,CLR,SCT,0.00,WeatherDisplay:10.37,2013-02-14 23:18:00,
2013-02-14 18:22:00,45.7,30.4,29.94,WSW,258,0.0,0.0,55,0.00,CLR,SCT,0.00,WeatherDisplay:10.37,2013-02-14 23:22:00,
2013-02-14 18:23:00,45.5,30.3,29.94,WSW,258,0.0,0.0,55,0.00,CLR,SCT,0.00,WeatherDisplay:10.37,2013-02-14 23:23:00,
2013-02-14 18:27:00,45.1,30.3,29.94,WSW,258,0.0,0.0,56,0.00,CLR,SCT,0.00,WeatherDisplay:10.37,2013-02-14 23:27:00,
2013-02-14 18:30:00,44.6,29.9,29.94,WSW,258,0.0,0.0,56,0.00,CLR,SCT,0.00,WeatherDisplay:10.37,2013-02-14 23:30:00,
2013-02-14 18:32:00,44.3,29.6,29.94,WSW,258,0.0,0.0,56,0.00,CLR,SCT,0.00,WeatherDisplay:10.37,2013-02-14 23:32:00,
2013-02-14 18:37:00,43.6,29.4,29.95,WSW,258,0.0,0.0,57,0.00,CLR,SCT,0.00,WeatherDisplay:10.37,2013-02-14 23:37:00,
2013-02-14 18:38:00,43.5,29.3,29.95,WSW,258,0.0,0.0,57,0.00,CLR,SCT,0.00,WeatherDisplay:10.37,2013-02-14 23:38:00,
2013-02-14 18:42:00,42.8,29.0,29.95,WSW,258,0.0,0.0,58,0.00,CLR,SCT,0.00,WeatherDisplay:10.37,2013-02-14 23:42:00,
2013-02-14 18:44:00,42.5,28.8,29.95,WSW,258,0.0,0.0,58,0.00,,SCT,0.00,WeatherDisplay:10.37,2013-02-14 23:44:00,
2013-02-14 18:47:00,41.9,28.2,29.95,WSW,258,0.0,0.0,58,0.00,,SCT,0.00,WeatherDisplay:10.37,2013-02-14 23:47:00,
2013-02-14 18:50:00,41.2,27.5,29.95,WSW,258,0.0,0.0,58,0.00,,SCT,0.00,WeatherDisplay:10.37,2013-02-14 23:50:00,
2013-02-14 18:52:00,40.8,27.2,29.96,WSW,258,0.0,0.0,58,0.00,,SCT,0.00,WeatherDisplay:10.37,2013-02-14 23:52:00,
2013-02-14 18:57:00,39.8,26.2,29.96,WSW,258,0.0,0.0,58,0.00,,SCT,0.00,WeatherDisplay:10.37,2013-02-14 23:57:00,
2013-02-14 18:58:00,39.6,26.4,29.96,WSW,258,0.0,0.0,59,0.00,,SCT,0.00,WeatherDisplay:10.37,2013-02-14 23:58:00,
2013-02-14 19:02:00,39.1,26.0,29.96,WSW,258,0.0,0.0,59,0.00,,SCT,0.00,WeatherDisplay:10.37,2013-02-15 00:02:00,
2013-02-14 19:03:00,38.9,25.8,29.96,WSW,258,0.0,0.0,59,0.00,,SCT,0.00,WeatherDisplay:10.37,2013-02-15 00:03:00,
2013-02-14 19:08:00,38.3,25.2,29.96,WSW,258,0.0,0.0,59,0.00,,SCT,0.00,WeatherDisplay:10.37,2013-02-15 00:08:00,
2013-02-14 19:11:00,38.0,24.9,29.97,WSW,258,0.0,0.0,59,0.00,,SCT,0.00,WeatherDisplay:10.37,2013-02-15 00:11:00,
2013-02-14 19:15:00,37.8,24.7,29.96,WSW,258,0.0,0.0,59,0.00,,SCT,0.00,WeatherDisplay:10.37,2013-02-15 00:15:00,
2013-02-14 19:16:00,37.6,25.0,29.96,WSW,258,0.0,0.0,60,0.00,,SCT,0.00,WeatherDisplay:10.37,2013-02-15 00:16:00,
2013-02-14 19:21:00,37.3,25.1,29.97,WSW,258,0.0,0.0,61,0.00,,SCT,0.00,WeatherDisplay:10.37,2013-02-15 00:21:00,
2013-02-14 19:22:00,37.2,25.0,29.97,WSW,258,0.0,0.0,61,0.00,,SCT,0.00,WeatherDisplay:10.37,2013-02-15 00:22:00,
2013-02-14 19:26:00,36.9,24.7,29.97,WSW,258,0.0,0.0,61,0.00,,SCT,0.00,WeatherDisplay:10.37,2013-02-15 00:26:00,
2013-02-14 19:27:00,36.9,24.7,29.97,WSW,258,0.0,0.0,61,0.00,,SCT,0.00,WeatherDisplay:10.37,2013-02-15 00:27:00,
2013-02-14 19:32:00,36.5,24.7,29.97,WSW,258,0.0,0.0,62,0.00,,SCT,0.00,WeatherDisplay:10.37,2013-02-15 00:32:00,
2013-02-14 19:33:00,36.3,24.5,29.97,WSW,258,0.0,0.0,62,0.00,,SCT,0.00,WeatherDisplay:10.37,2013-02-15 00:33:00,
2013-02-14 19:37:00,36.0,24.2,29.97,WSW,258,0.0,0.0,62,0.00,,SCT,0.00,WeatherDisplay:10.37,2013-02-15 00:37:00,
2013-02-14 19:42:00,35.6,24.2,29.98,WSW,258,0.0,0.0,63,0.00,,SCT,0.00,WeatherDisplay:10.37,2013-02-15 00:42:00,
2013-02-14 19:44:00,35.5,24.5,29.98,WSW,258,0.0,0.0,64,0.00,,SCT,0.00,WeatherDisplay:10.37,2013-02-15 00:44:00,
2013-02-14 19:48:00,35.3,24.3,29.98,WSW,258,0.0,0.0,64,0.00,,SCT,0.00,WeatherDisplay:10.37,2013-02-15 00:48:00,
2013-02-14 19:49:00,35.3,24.3,29.98,WSW,258,0.0,0.0,64,0.00,,SCT,0.00,WeatherDisplay:10.37,2013-02-15 00:49:00,
2013-02-14 19:53:00,35.0,24.0,29.98,WSW,258,0.0,0.0,64,0.00,,SCT,0.00,WeatherDisplay:10.37,2013-02-15 00:53:00,
2013-02-14 19:54:00,35.0,24.0,29.98,WSW,258,0.0,0.0,64,0.00,,SCT,0.00,WeatherDisplay:10.37,2013-02-15 00:54:00,
2013-02-14 19:58:00,34.7,23.8,29.98,WSW,258,0.0,0.0,64,0.00,,SCT,0.00,WeatherDisplay:10.37,2013-02-15 00:58:00,
2013-02-14 19:59:00,34.7,23.8,29.98,WSW,258,0.0,0.0,64,0.00,,SCT,0.00,WeatherDisplay:10.37,2013-02-15 00:59:00,
2013-02-14 20:04:00,34.3,23.4,29.98,WSW,258,0.0,0.0,64,0.00,,SCT,0.00,WeatherDisplay:10.37,2013-02-15 01:04:00,
2013-02-14 20:09:00,34.0,23.5,29.98,WSW,258,0.0,0.0,65,0.00,,SCT,0.00,WeatherDisplay:10.37,2013-02-15 01:09:00,
2013-02-14 20:11:00,33.8,23.3,29.97,WSW,258,0.0,0.0,65,0.00,,SCT,0.00,WeatherDisplay:10.37,2013-02-15 01:11:00,
2013-02-14 20:14:00,33.7,23.2,29.97,WSW,258,0.0,0.0,65,0.00,,SCT,0.00,WeatherDisplay:10.37,2013-02-15 01:14:00,
2013-02-14 20:16:00,33.5,23.4,29.97,WSW,258,0.0,0.0,66,0.00,,SCT,0.00,WeatherDisplay:10.37,2013-02-15 01:16:00,
2013-02-14 20:19:00,33.5,23.4,29.97,WSW,258,0.0,0.0,66,0.00,,SCT,0.00,WeatherDisplay:10.37,2013-02-15 01:19:00,
2013-02-14 20:22:00,33.4,22.9,29.98,WSW,258,0.0,0.0,65,0.00,,SCT,0.00,WeatherDisplay:10.37,2013-02-15 01:22:00,
2013-02-14 20:24:00,33.2,22.7,29.98,WSW,258,0.0,0.0,65,0.00,,SCT,0.00,WeatherDisplay:10.37,2013-02-15 01:24:00,
2013-02-14 20:25:00,33.2,22.7,29.98,WSW,258,0.0,0.0,65,0.00,,SCT,0.00,WeatherDisplay:10.37,2013-02-15 01:25:00,
2013-02-14 20:27:00,33.1,22.6,29.98,WSW,258,0.0,0.0,65,0.00,,SCT,0.00,WeatherDisplay:10.37,2013-02-15 01:27:00,
2013-02-14 20:29:00,33.1,22.6,29.98,WSW,258,0.0,0.0,65,0.00,,SCT,0.00,WeatherDisplay:10.37,2013-02-15 01:29:00,
2013-02-14 20:32:00,32.9,22.8,29.98,WSW,258,0.0,0.0,66,0.00,,SCT,0.00,WeatherDisplay:10.37,2013-02-15 01:32:00,
2013-02-14 20:35:00,32.9,22.8,29.98,WSW,258,0.0,0.0,66,0.00,,SCT,0.00,WeatherDisplay:10.37,2013-02-15 01:35:00,
2013-02-14 20:37:00,32.8,22.7,29.98,WSW,258,0.0,0.0,66,0.00,,SCT,0.00,WeatherDisplay:10.37,2013-02-15 01:37:00,
2013-02-14 20:41:00,32.7,22.6,29.98,WSW,258,0.0,0.0,66,0.00,,SCT,0.00,WeatherDisplay:10.37,2013-02-15 01:41:00,
2013-02-14 20:42:00,32.5,22.4,29.98,WSW,258,0.0,0.0,66,0.00,,SCT,0.00,WeatherDisplay:10.37,2013-02-15 01:42:00,
2013-02-14 20:46:00,32.4,21.9,29.98,WSW,258,0.0,0.0,65,0.00,,SCT,0.00,WeatherDisplay:10.37,2013-02-15 01:46:00,
2013-02-14 20:48:00,32.4,21.9,29.98,WSW,258,0.0,0.0,65,0.00,,SCT,0.00,WeatherDisplay:10.37,2013-02-15 01:48:00,
2013-02-14 20:51:00,32.2,22.1,29.98,WSW,258,0.0,0.0,66,0.00,,SCT,0.00,WeatherDisplay:10.37,2013-02-15 01:51:00,
2013-02-14 20:53:00,32.2,22.1,29.98,WSW,258,0.0,0.0,66,0.00,,SCT,0.00,WeatherDisplay:10.37,2013-02-15 01:53:00,
2013-02-14 20:56:00,32.1,22.0,29.98,WSW,258,0.0,0.0,66,0.00,,SCT,0.00,WeatherDisplay:10.37,2013-02-15 01:56:00,
2013-02-14 20:58:00,32.1,22.0,29.98,WSW,258,0.0,0.0,66,0.00,,SCT,0.00,WeatherDisplay:10.37,2013-02-15 01:58:00,
2013-02-14 21:03:00,31.9,21.8,29.98,WSW,258,0.0,0.0,66,0.00,,SCT,0.00,WeatherDisplay:10.37,2013-02-15 02:03:00,
2013-02-14 21:04:00,31.9,21.8,29.98,WSW,258,0.0,0.0,66,0.00,,SCT,0.00,WeatherDisplay:10.37,2013-02-15 02:04:00,
2013-02-14 21:09:00,31.9,21.8,29.98,WSW,258,0.0,0.0,66,0.00,,SCT,0.00,WeatherDisplay:10.37,2013-02-15 02:09:00,
2013-02-14 21:10:00,31.8,21.7,29.98,WSW,258,0.0,0.0,66,0.00,,SCT,0.00,WeatherDisplay:10.37,2013-02-15 02:10:00,
2013-02-14 21:14:00,31.8,21.7,29.98,WSW,258,0.0,0.0,66,0.00,,SCT,0.00,WeatherDisplay:10.37,2013-02-15 02:14:00,
2013-02-14 21:16:00,31.6,21.5,29.98,WSW,258,0.0,0.0,66,0.00,,SCT,0.00,WeatherDisplay:10.37,2013-02-15 02:16:00,
2013-02-14 21:19:00,31.6,21.5,29.98,WSW,258,0.0,0.0,66,0.00,,SCT,0.00,WeatherDisplay:10.37,2013-02-15 02:19:00,
2013-02-14 21:21:00,31.5,21.4,29.98,WSW,258,0.0,0.0,66,0.00,,SCT,0.00,WeatherDisplay:10.37,2013-02-15 02:21:00,
2013-02-14 21:26:00,31.3,21.6,29.98,WSW,258,0.0,0.0,67,0.00,,SCT,0.00,WeatherDisplay:10.37,2013-02-15 02:26:00,
2013-02-14 21:27:00,31.3,21.6,29.98,WSW,258,0.0,0.0,67,0.00,,SCT,0.00,WeatherDisplay:10.37,2013-02-15 02:27:00,
2013-02-14 21:31:00,31.2,21.9,29.98,WSW,258,0.0,0.0,68,0.00,,SCT,0.00,WeatherDisplay:10.37,2013-02-15 02:31:00,
2013-02-14 21:32:00,31.2,21.9,29.98,WSW,258,0.0,0.0,68,0.00,,SCT,0.00,WeatherDisplay:10.37,2013-02-15 02:32:00,
2013-02-14 21:37:00,30.9,21.6,29.98,WSW,258,0.0,0.0,68,0.00,,SCT,0.00,WeatherDisplay:10.37,2013-02-15 02:37:00,
2013-02-14 21:38:00,30.9,21.6,29.98,WSW,258,0.0,0.0,68,0.00,,SCT,0.00,WeatherDisplay:10.37,2013-02-15 02:38:00,
2013-02-14 21:42:00,30.7,21.4,29.98,WSW,258,0.0,0.0,68,0.00,,SCT,0.00,WeatherDisplay:10.37,2013-02-15 02:42:00,
2013-02-14 21:43:00,30.7,21.7,29.98,WSW,258,0.0,0.0,69,0.00,,SCT,0.00,WeatherDisplay:10.37,2013-02-15 02:43:00,
2013-02-14 21:47:00,30.6,21.6,29.98,WSW,258,0.0,0.0,69,0.00,,SCT,0.00,WeatherDisplay:10.37,2013-02-15 02:47:00,
2013-02-14 21:49:00,30.4,21.4,29.98,WSW,258,0.0,0.0,69,0.00,,SCT,0.00,WeatherDisplay:10.37,2013-02-15 02:49:00,
2013-02-14 21:52:00,30.4,21.1,29.98,WSW,258,0.0,0.0,68,0.00,,SCT,0.00,WeatherDisplay:10.37,2013-02-15 02:52:00,
2013-02-14 21:55:00,30.3,21.0,29.98,WSW,258,0.0,0.0,68,0.00,,SCT,0.00,WeatherDisplay:10.37,2013-02-15 02:55:00,
2013-02-14 21:57:00,30.3,21.0,29.98,WSW,258,0.0,0.0,68,0.00,,SCT,0.00,WeatherDisplay:10.37,2013-02-15 02:57:00,
2013-02-14 22:00:00,30.1,20.8,29.98,WSW,258,0.0,0.0,68,0.00,,SCT,0.00,WeatherDisplay:10.37,2013-02-15 03:00:00,
2013-02-14 22:03:00,30.1,20.8,29.98,WSW,258,0.0,0.0,68,0.00,,SCT,0.00,WeatherDisplay:10.37,2013-02-15 03:03:00,
2013-02-14 22:05:00,30.1,20.8,29.98,WSW,258,0.0,0.0,68,0.00,,SCT,0.00,WeatherDisplay:10.37,2013-02-15 03:05:00,
2013-02-14 22:06:00,30.0,21.1,29.98,WSW,258,0.0,0.0,69,0.00,,SCT,0.00,WeatherDisplay:10.37,2013-02-15 03:06:00,
2013-02-14 22:07:00,30.0,21.1,29.98,WSW,258,0.0,0.0,69,0.00,,SCT,0.00,WeatherDisplay:10.37,2013-02-15 03:07:00,
2013-02-14 22:09:00,30.0,21.1,29.98,WSW,258,0.0,0.0,69,0.00,,SCT,0.00,WeatherDisplay:10.37,2013-02-15 03:09:00,
2013-02-14 22:11:00,30.0,21.1,29.98,WSW,258,0.0,0.0,69,0.00,,SCT,0.00,WeatherDisplay:10.37,2013-02-15 03:11:00,
2013-02-14 22:12:00,30.0,21.1,29.98,WSW,258,0.0,0.0,69,0.00,,SCT,0.00,WeatherDisplay:10.37,2013-02-15 03:12:00,
2013-02-14 22:17:00,29.8,20.9,29.98,WSW,258,0.0,0.0,69,0.00,,SCT,0.00,WeatherDisplay:10.37,2013-02-15 03:17:00,
2013-02-14 22:23:00,29.8,20.9,29.98,WSW,258,0.0,0.0,69,0.00,,SCT,0.00,WeatherDisplay:10.37,2013-02-15 03:23:00,
2013-02-14 22:28:00,29.7,20.8,29.98,WSW,258,0.0,0.0,69,0.00,,SCT,0.00,WeatherDisplay:10.37,2013-02-15 03:28:00,
2013-02-14 22:29:00,29.7,20.8,29.98,WSW,258,0.0,0.0,69,0.00,,SCT,0.00,WeatherDisplay:10.37,2013-02-15 03:29:00,
2013-02-14 22:34:00,29.7,20.8,29.98,WSW,258,0.0,0.0,69,0.00,,SCT,0.00,WeatherDisplay:10.37,2013-02-15 03:34:00,
2013-02-14 22:35:00,29.7,20.8,29.98,WSW,258,0.0,0.0,69,0.00,,SCT,0.00,WeatherDisplay:10.37,2013-02-15 03:35:00,
2013-02-14 22:40:00,29.5,20.6,29.98,WSW,258,0.0,0.0,69,0.00,,SCT,0.00,WeatherDisplay:10.37,2013-02-15 03:40:00,
2013-02-14 22:45:00,29.5,20.9,29.99,WSW,258,0.0,0.0,70,0.00,,SCT,0.00,WeatherDisplay:10.37,2013-02-15 03:45:00,
2013-02-14 22:50:00,29.4,20.8,29.99,WSW,258,0.0,0.0,70,0.00,,SCT,0.00,WeatherDisplay:10.37,2013-02-15 03:50:00,
2013-02-14 22:53:00,29.4,20.8,29.99,WSW,258,0.0,0.0,70,0.00,,SCT,0.00,WeatherDisplay:10.37,2013-02-15 03:53:00,
2013-02-14 22:57:00,29.3,20.4,29.99,WSW,258,0.0,0.0,69,0.00,,SCT,0.00,WeatherDisplay:10.37,2013-02-15 03:57:00,
2013-02-14 22:58:00,29.3,20.4,29.99,WSW,258,0.0,0.0,69,0.00,,SCT,0.00,WeatherDisplay:10.37,2013-02-15 03:58:00,
2013-02-14 23:03:00,29.1,20.2,29.99,WSW,258,0.0,0.0,69,0.00,,SCT,0.00,WeatherDisplay:10.37,2013-02-15 04:03:00,
2013-02-14 23:08:00,29.0,20.1,29.99,WSW,258,0.0,0.0,69,0.00,,SCT,0.00,WeatherDisplay:10.37,2013-02-15 04:08:00,
2013-02-14 23:09:00,29.0,20.1,29.99,WSW,258,0.0,0.0,69,0.00,,SCT,0.00,WeatherDisplay:10.37,2013-02-15 04:09:00,
2013-02-14 23:10:00,29.0,20.1,29.99,WSW,258,0.0,0.0,69,0.00,,SCT,0.00,WeatherDisplay:10.37,2013-02-15 04:10:00,
2013-02-14 23:15:00,28.8,20.2,29.99,WSW,258,0.0,0.0,70,0.00,,SCT,0.00,WeatherDisplay:10.37,2013-02-15 04:15:00,
2013-02-14 23:16:00,28.8,20.2,29.99,WSW,258,0.0,0.0,70,0.00,,SCT,0.00,WeatherDisplay:10.37,2013-02-15 04:16:00,
2013-02-14 23:17:00,28.8,20.2,29.99,WSW,258,0.0,0.0,70,0.00,,SCT,0.00,WeatherDisplay:10.37,2013-02-15 04:17:00,
2013-02-14 23:20:00,28.8,20.2,29.99,WSW,258,0.0,0.0,70,0.00,,SCT,0.00,WeatherDisplay:10.37,2013-02-15 04:20:00,
2013-02-14 23:25:00,28.7,20.1,29.99,WSW,258,0.0,0.0,70,0.00,,SCT,0.00,WeatherDisplay:10.37,2013-02-15 04:25:00,
2013-02-14 23:30:00,28.7,20.1,29.99,WSW,258,0.0,0.0,70,0.00,,SCT,0.00,WeatherDisplay:10.37,2013-02-15 04:30:00,
2013-02-14 23:35:00,28.5,20.0,29.99,WSW,258,0.0,0.0,70,0.00,,SCT,0.00,WeatherDisplay:10.37,2013-02-15 04:35:00,
2013-02-14 23:36:00,28.4,19.9,29.99,WSW,258,0.0,0.0,70,0.00,,SCT,0.00,WeatherDisplay:10.37,2013-02-15 04:36:00,
2013-02-14 23:41:00,28.4,19.9,29.99,WSW,258,0.0,0.0,70,0.00,,SCT,0.00,WeatherDisplay:10.37,2013-02-15 04:41:00,
2013-02-14 23:46:00,28.2,20.0,29.99,WSW,258,0.0,0.0,71,0.00,,SCT,0.00,WeatherDisplay:10.37,2013-02-15 04:46:00,
2013-02-14 23:51:00,28.1,19.9,29.99,WSW,258,0.0,0.0,71,0.00,,SCT,0.00,WeatherDisplay:10.37,2013-02-15 04:51:00,
2013-02-14 23:52:00,28.1,19.9,29.99,WSW,258,0.0,0.0,71,0.00,,SCT,0.00,WeatherDisplay:10.37,2013-02-15 04:52:00,
2013-02-14 23:56:00,28.1,19.9,29.99,WSW,258,0.0,0.0,71,0.00,,SCT,0.00,WeatherDisplay:10.37,2013-02-15 04:56:00,